GEFSGL_con_probscp_102.txt.gz
Probability
7 8 9 10 10 11 13 14 14 14 14 13 13 13 9 6 5 5 4 2 1 1 1 0 0 1 3 3 2 1 1 1 1 2 7 18 26 23 17 12 5 1 0
5 5 7 9 10 11 13 15 15 15 14 13 12 11 8 7 8 7 3 1 1 1 1 1 2 3 5 4 3 2 2 3 3 3 5 14 21 23 21 14 7 3 2
4 5 7 10 12 13 15 15 15 14 11 9 10 9 7 6 8 7 3 2 3 3 3 4 4 6 7 7 5 5 5 5 6 5 4 10 16 20 22 17 10 7 5
7 9 12 13 15 17 17 15 13 11 7 5 6 6 5 4 5 4 3 3 5 5 4 4 4 4 6 6 6 6 6 6 8 7 6 8 12 15 17 14 9 7 6
14 15 16 17 18 20 19 16 13 9 6 5 5 4 3 2 2 2 4 6 6 5 4 2 1 1 2 3 3 4 4 5 6 6 6 7 7 9 10 8 5 5 6
22 21 20 20 21 22 21 19 16 11 9 8 6 5 3 1 0 1 4 6 6 4 4 3 1 0 0 0 0 1 1 1 2 2 4 5 5 6 6 5 4 5 6
25 24 23 23 23 23 22 22 19 15 12 10 8 6 3 1 0 0 1 3 3 3 3 3 2 1 1 1 0 0 0 0 0 0 1 2 3 4 5 5 5 5 5
26 26 25 25 24 23 22 22 20 16 12 11 9 7 3 1 0 0 0 0 0 0 1 2 2 2 1 0 0 0 0 0 0 0 0 0 1 2 3 3 4 5 5
27 26 25 24 23 21 19 18 17 14 11 9 7 4 2 0 0 0 0 0 0 0 0 1 1 1 0 0 0 0 0 0 0 0 0 0 0 1 1 2 3 4 4
28 25 23 22 20 18 16 14 12 10 7 5 3 2 0 0 0 0 0 0 0 0 0 0 0 0 0 0 0 0 0 0 0 0 0 0 0 0 0 0 1 2 2
26 24 21 18 16 14 13 12 9 6 3 1 0 0 0 0 0 0 0 0 0 0 0 0 0 0 0 0 0 0 0 0 0 0 0 0 0 0 0 0 0 1 1
20 18 15 12 10 9 8 7 5 3 1 0 0 0 0 0 0 0 0 0 0 0 0 0 0 0 0 0 0 0 0 0 0 0 0 0 0 0 0 0 0 0 0
12 9 6 5 3 3 3 2 1 1 0 0 0 0 0 0 0 0 0 0 0 0 0 0 0 0 0 0 0 0 0 0 0 0 0 0 0 0 0 0 0 0 0
4 3 1 1 0 1 1 0 0 0 0 0 0 0 0 0 0 0 0 0 0 0 0 0 0 0 0 0 0 0 0 0 0 0 0 0 0 0 0 0 0 0 0
1 0 0 0 0 0 0 0 0 0 0 0 0 0 0 0 0 0 0 0 0 0 0 0 0 0 0 0 0 0 0 0 0 0 0 0 0 0 0 0 0 0 0
0 0 0 0 0 0 0 0 0 0 0 0 0 0 0 0 0 0 0 0 0 0 0 0 0 0 0 0 0 0 0 0 0 0 0 0 0 0 0 0 0 0 0
0 0 0 0 0 0 0 0 0 0 0 0 0 0 0 0 0 0 0 0 0 0 0 0 0 0 0 0 0 0 0 0 0 0 0 0 0 0 0 0 0 0 0
0 0 0 0 0 0 0 0 0 0 0 0 0 0 0 0 0 0 0 0 0 0 0 0 0 0 0 0 0 0 0 0 0 0 0 0 0 0 0 0 0 0 0
0 0 0 0 0 0 0 0 0 0 0 0 0 0 0 0 0 0 0 0 0 0 0 0 0 0 0 0 0 0 0 0 0 0 0 0 0 0 0 0 0 0 0
0 0 0 0 0 0 0 0 0 0 0 0 0 0 0 0 0 0 0 0 0 0 0 0 0 0 0 0 0 0 0 0 0 0 0 0 0 0 0 0 0 0 0
0 0 0 0 0 0 0 0 0 0 0 0 0 0 0 0 0 0 0 0 0 0 0 0 0 0 0 0 0 0 0 0 0 0 0 0 0 0 0 0 0 0 0
0 0 0 0 0 0 0 0 0 0 0 0 0 0 0 0 0 0 0 0 0 0 0 0 0 0 0 0 0 0 0 0 0 0 0 0 0 0 0 0 0 0 0
0 0 0 0 0 0 0 0 0 0 0 0 0 0 0 0 0 0 0 0 0 0 0 0 0 0 0 0 0 0 0 0 0 0 0 0 0 0 0 0 0 0 0
0 0 0 0 0 0 0 0 0 0 0 0 0 0 0 0 0 0 0 0 0 0 0 0 0 0 0 0 0 0 0 0 0 0 0 0 0 0 0 0 0 0 0
0 0 0 0 0 0 0 0 0 0 0 0 0 0 0 0 0 0 0 0 0 0 0 0 0 0 0 0 0 0 0 0 0 0 0 0 0 0 0 0 0 0 0
0 0 0 0 0 0 0 0 0 0 0 0 0 0 0 0 0 0 0 0 0 0 0 0 0 0 0 0 0 0 0 0 0 0 0 0 0 0 0 0 0 0 0

GEFSGL_con_probscp_108.txt.gz
Probability
6 6 5 4 4 3 2 1 0 0 0 0 0 0 0 0 0 0 0 0 0 0 0 0 0 0 0 0 0 0 0 0 0 0 0 0 0 0 0 0 0 0 0
6 5 5 4 3 3 2 1 0 0 0 0 0 0 0 0 0 0 0 0 0 0 0 0 0 0 0 0 0 0 0 0 0 0 0 0 0 0 0 0 0 0 0
5 4 4 4 4 2 1 0 0 0 0 0 0 0 0 0 0 0 0 0 0 0 0 0 0 0 0 0 0 0 0 0 0 0 0 0 0 0 0 0 0 0 0
4 4 4 5 5 3 1 0 0 0 0 0 0 0 0 0 0 0 0 0 0 0 0 0 0 0 0 0 0 0 0 0 0 0 0 0 0 0 0 0 0 0 0
4 3 3 4 5 4 2 1 1 0 0 0 0 0 0 0 0 0 0 0 0 0 0 0 0 0 0 0 0 0 0 0 0 0 0 0 0 0 0 0 0 0 0
3 3 3 4 4 4 3 3 2 1 0 0 0 0 0 0 0 0 0 0 0 0 0 0 0 0 0 0 0 0 0 0 0 0 0 0 0 0 0 0 0 0 0
4 4 4 4 5 4 3 3 2 1 0 0 0 0 0 0 0 0 0 0 0 0 0 0 0 0 0 0 0 0 0 0 0 0 0 0 0 0 0 0 0 0 0
6 6 6 6 6 5 4 3 2 1 0 0 0 0 0 0 0 0 0 0 0 0 0 0 0 0 0 0 0 0 0 0 0 0 0 0 0 0 0 0 0 0 0
9 10 9 8 6 4 3 3 2 1 0 0 0 0 0 0 0 0 0 0 0 0 0 0 0 0 0 0 0 0 0 0 0 0 0 0 0 0 0 0 0 0 0
11 11 10 8 5 3 3 3 2 1 0 0 0 0 0 0 0 0 0 0 0 0 0 0 0 0 0 0 0 0 0 0 0 0 0 0 0 0 0 0 0 0 0
10 8 6 4 3 2 2 1 1 0 0 0 0 0 0 0 0 0 0 0 0 0 0 0 0 0 0 0 0 0 0 0 0 0 0 0 0 0 0 0 0 0 0
5 3 1 1 1 1 1 0 0 0 0 0 0 0 0 0 0 0 0 0 0 0 0 0 0 0 0 0 0 0 0 0 0 0 0 0 0 0 0 0 0 0 0
2 1 0 0 0 0 0 0 0 0 0 0 0 0 0 0 0 0 0 0 0 0 0 0 0 0 0 0 0 0 0 0 0 0 0 0 0 0 0 0 0 0 0
0 0 0 0 0 0 0 0 0 0 0 0 0 0 0 0 0 0 0 0 0 0 0 0 0 0 0 0 0 0 0 0 0 0 0 0 0 0 0 0 0 0 0
0 0 0 0 0 0 0 0 0 0 0 0 0 0 0 0 0 0 0 0 0 0 0 0 0 0 0 0 0 0 0 0 0 0 0 0 0 0 0 0 0 0 0
0 0 0 0 0 0 0 0 0 0 0 0 0 0 0 0 0 0 0 0 0 0 0 0 0 0 0 0 0 0 0 0 0 0 0 0 0 0 0 0 0 0 0
0 0 0 0 0 0 0 0 0 0 0 0 0 0 0 0 0 0 0 0 0 0 0 0 0 0 0 0 0 0 0 0 0 0 0 0 0 0 0 0 0 0 0
0 0 0 0 0 0 0 0 0 0 0 0 0 0 0 0 0 0 0 0 0 0 0 0 0 0 0 0 0 0 0 0 0 0 0 0 0 0 0 0 0 0 0
0 0 0 0 0 0 0 0 0 0 0 0 0 0 0 0 0 0 0 0 0 0 0 0 0 0 0 0 0 0 0 0 0 0 0 0 0 0 0 0 0 0 0
0 0 0 0 0 0 0 0 0 0 0 0 0 0 0 0 0 0 0 0 0 0 0 0 0 0 0 0 0 0 0 0 0 0 0 0 0 0 0 0 0 0 0
0 0 0 0 0 0 0 0 0 0 0 0 0 0 0 0 0 0 0 0 0 0 0 0 0 0 0 0 0 0 0 0 0 0 0 0 0 0 0 0 0 0 0
0 0 0 0 0 0 0 0 0 0 0 0 0 0 0 0 0 0 0 0 0 0 0 0 0 0 0 0 0 0 0 0 0 0 0 0 0 0 0 0 0 0 0
0 0 0 0 0 0 0 0 0 0 0 0 0 0 0 0 0 0 0 0 0 0 0 0 0 0 0 0 0 0 0 0 0 0 0 0 0 0 0 0 0 0 0
0 0 0 0 0 0 0 0 0 0 0 0 0 0 0 0 0 0 0 0 0 0 0 0 0 0 0 0 0 0 0 0 0 0 0 0 0 0 0 0 0 0 0
0 0 0 0 0 0 0 0 0 0 0 0 0 0 0 0 0 0 0 0 0 0 0 0 0 0 0 0 0 0 0 0 0 0 0 0 0 0 0 0 0 0 0
0 0 0 0 0 0 0 0 0 0 0 0 0 0 0 0 0 0 0 0 0 0 0 0 0 0 0 0 0 0 0 0 0 0 0 0 0 0 0 0 0 0 0

GEFSGL_con_probscp_114.txt.gz
Probability
3 3 3 3 2 1 0 0 0 0 0 0 0 0 0 0 0 0 0 0 0 0 0 0 0 0 0 0 0 0 0 0 0 0 0 0 0 0 0 0 0 0 0
2 2 2 2 2 0 0 0 0 0 0 0 0 0 0 0 0 0 0 0 0 0 0 0 0 0 0 0 0 0 0 0 0 0 0 0 0 0 0 0 0 0 0
1 1 1 2 2 1 1 0 0 0 0 0 0 0 0 0 0 0 0 0 0 0 0 0 0 0 0 0 0 0 0 0 0 0 0 0 0 0 0 0 0 0 0
0 1 1 2 3 3 2 1 1 0 0 0 0 0 0 0 0 0 0 0 0 0 0 0 0 0 0 0 0 0 0 0 0 0 0 0 0 0 0 0 0 0 0
1 1 2 2 3 3 3 3 2 1 0 0 0 0 0 0 0 0 0 0 0 0 0 0 0 0 0 0 0 0 0 0 0 0 0 0 0 0 0 0 0 0 0
0 1 1 2 3 3 3 3 3 2 1 0 0 0 0 0 0 0 0 0 0 0 0 0 0 0 0 0 0 0 0 0 0 0 0 0 0 0 0 0 0 0 0
0 0 0 1 1 3 3 3 3 3 2 1 0 0 0 0 0 0 0 0 0 0 0 0 0 0 0 0 0 0 0 0 0 0 0 0 0 0 0 0 0 0 0
0 0 0 0 1 2 3 3 3 3 3 1 1 0 0 0 0 0 0 0 0 0 0 0 0 0 0 0 0 0 0 0 0 0 0 0 0 0 0 0 0 0 0
1 1 0 0 0 1 2 3 3 3 3 3 2 1 0 0 0 0 0 0 0 0 0 0 0 0 0 0 0 0 0 0 0 0 0 0 0 0 0 0 0 0 0
2 1 0 0 0 0 1 3 3 3 3 3 2 1 0 0 0 0 0 0 0 0 0 0 0 0 0 0 0 0 0 0 0 0 0 0 0 0 0 0 0 0 0
1 1 0 0 0 0 1 2 2 2 2 2 1 0 0 0 0 0 0 0 0 0 0 0 0 0 0 0 0 0 0 0 0 0 0 0 0 0 0 0 0 0 0
1 1 0 0 0 0 0 1 1 1 1 1 0 0 0 0 0 0 0 0 0 0 0 0 0 0 0 0 0 0 0 0 0 0 0 0 0 0 0 0 0 0 0
0 0 0 0 0 0 0 0 0 0 0 0 0 0 0 0 0 0 0 0 0 0 0 0 0 0 0 0 0 0 0 0 0 0 0 0 0 0 0 0 0 0 0
0 0 0 0 0 0 0 0 0 0 0 0 0 0 0 0 0 0 0 0 0 0 0 0 0 0 0 0 0 0 0 0 0 0 0 0 0 0 0 0 0 0 0
0 0 0 0 0 0 0 0 0 0 0 0 0 0 0 0 0 0 0 0 0 0 0 0 0 0 0 0 0 0 0 0 0 0 0 0 0 0 0 0 0 0 0
0 0 0 0 0 0 0 0 0 0 0 0 0 0 0 0 0 0 0 0 0 0 0 0 0 0 0 0 0 0 0 0 0 0 0 0 0 0 0 0 0 0 0
0 0 0 0 0 0 0 0 0 0 0 0 0 0 0 0 0 0 0 0 0 0 0 0 0 0 0 0 0 0 0 0 0 0 0 0 0 0 0 0 0 0 0
0 0 0 0 0 0 0 0 0 0 0 0 0 0 0 0 0 0 0 0 0 0 0 0 0 0 0 0 0 0 0 0 0 0 0 0 0 0 0 0 0 0 0
0 0 0 0 0 0 0 0 0 0 0 0 0 0 0 0 0 0 0 0 0 0 0 0 0 0 0 0 0 0 0 0 0 0 0 0 0 0 0 0 0 0 0
0 0 0 0 0 0 0 0 0 0 0 0 0 0 0 0 0 0 0 0 0 0 0 0 0 0 0 0 0 0 0 0 0 0 0 0 0 0 0 0 0 0 0
0 0 0 0 0 0 0 0 0 0 0 0 0 0 0 0 0 0 0 0 0 0 0 0 0 0 0 0 0 0 0 0 0 0 0 0 0 0 0 0 0 0 0
0 0 0 0 0 0 0 0 0 0 0 0 0 0 0 0 0 0 0 0 0 0 0 0 0 0 0 0 0 0 0 0 0 0 0 0 0 0 0 0 0 0 0
0 0 0 0 0 0 0 0 0 0 0 0 0 0 0 0 0 0 0 0 0 0 0 0 0 0 0 0 0 0 0 0 0 0 0 0 0 0 0 0 0 0 0
0 0 0 0 0 0 0 0 0 0 0 0 0 0 0 0 0 0 0 0 0 0 0 0 0 0 0 0 0 0 0 0 0 0 0 0 0 0 0 0 0 0 0
0 0 0 0 0 0 0 0 0 0 0 0 0 0 0 0 0 0 0 0 0 0 0 0 0 0 0 0 0 0 0 0 0 0 0 0 0 0 0 0 0 0 0
0 0 0 0 0 0 0 0 0 0 0 0 0 0 0 0 0 0 0 0 0 0 0 0 0 0 0 0 0 0 0 0 0 0 0 0 0 0 0 0 0 0 0

GEFSGL_con_probscp_120.txt.gz
Probability
3 3 4 3 1 0 1 2 3 4 4 3 3 4 5 5 6 7 6 3 2 2 2 2 2 2 3 3 3 4 5 4 3 2 5 9 11 10 7 5 5 4 3
4 4 3 2 2 1 1 1 2 4 4 3 3 3 5 6 6 6 5 2 1 2 2 1 1 1 2 3 3 4 4 4 3 3 4 7 8 6 4 3 3 2 2
5 4 2 2 3 3 2 2 3 4 4 3 4 5 6 6 6 6 4 2 1 2 2 1 0 0 1 2 2 4 4 3 3 3 3 5 5 4 3 2 2 2 1
5 3 2 3 5 5 4 5 6 5 4 3 4 5 5 4 4 5 4 3 2 1 1 1 0 0 0 0 1 3 3 3 4 3 3 3 4 5 5 4 4 3 2
4 3 2 3 5 6 5 5 5 4 3 3 3 3 2 1 1 3 3 3 2 1 1 0 0 0 0 0 0 1 2 3 4 3 2 2 3 3 4 5 4 3 2
2 1 1 2 3 3 3 3 4 4 4 4 4 3 3 1 0 1 2 3 3 3 2 1 0 0 0 0 0 0 1 1 1 1 1 1 1 1 1 2 1 1 1
2 2 2 2 2 3 3 5 6 6 6 6 6 6 5 3 1 0 1 2 3 3 3 2 1 0 0 0 0 0 0 0 0 0 0 0 0 0 0 0 0 0 0
6 7 7 6 5 6 7 8 9 8 7 7 7 6 5 3 1 0 0 1 1 2 2 2 1 0 0 0 0 0 0 0 0 0 0 0 0 0 0 0 0 0 0
10 11 12 11 11 11 12 12 9 7 5 4 4 4 3 3 2 1 0 0 0 1 1 1 1 0 0 0 0 0 0 0 0 0 0 0 0 0 0 0 0 0 0
12 14 15 16 15 15 15 12 8 5 3 2 2 2 2 2 2 1 0 0 0 0 0 1 1 0 0 0 0 0 0 0 0 0 0 0 0 0 0 0 0 0 0
14 15 16 17 16 14 13 10 6 4 2 1 1 1 1 1 1 0 0 0 0 0 0 1 1 0 0 0 0 0 0 0 0 0 0 0 0 0 0 0 0 0 0
16 17 17 17 14 12 10 7 4 2 1 0 0 0 0 0 0 0 0 0 0 0 0 0 0 0 0 0 0 0 0 0 0 0 0 0 0 0 0 0 0 0 0
19 18 16 15 11 8 6 4 2 1 0 0 0 0 0 0 0 0 0 0 0 0 0 0 0 0 0 0 0 0 0 0 0 0 0 0 0 0 0 0 0 0 0
17 14 11 8 6 3 2 1 0 0 0 0 0 0 0 0 0 0 0 0 0 0 0 0 0 0 0 0 0 0 0 0 0 0 0 0 0 0 0 0 0 0 0
8 7 5 3 2 1 0 0 0 0 0 0 0 0 0 0 0 0 0 0 0 0 0 0 0 0 0 0 0 0 0 0 0 0 0 0 0 0 0 0 0 0 0
2 2 2 1 1 0 0 0 0 0 0 0 0 0 0 0 0 0 0 0 0 0 0 0 0 0 0 0 0 0 0 0 0 0 0 0 0 0 0 0 0 0 0
0 0 0 0 0 0 0 0 0 0 0 0 0 0 0 0 0 0 0 0 0 0 0 0 0 0 0 0 0 0 0 0 0 0 0 0 0 0 0 0 0 0 0
0 0 0 0 0 0 0 0 0 0 0 0 0 0 0 0 0 0 0 0 0 0 0 0 0 0 0 0 0 0 0 0 0 0 0 0 0 0 0 0 0 0 0
0 0 0 0 0 0 0 0 0 0 0 0 0 0 0 0 0 0 0 0 0 0 0 0 0 0 0 0 0 0 0 0 0 0 0 0 0 0 0 0 0 0 0
0 0 0 0 0 0 0 0 0 0 0 0 0 0 0 0 0 0 0 0 0 0 0 0 0 0 0 0 0 0 0 0 0 0 0 0 0 0 0 0 0 0 0
0 0 0 0 0 0 0 0 0 0 0 0 0 0 0 0 0 0 0 0 0 0 0 0 0 0 0 0 0 0 0 0 0 0 0 0 0 0 0 0 0 0 0
0 0 0 0 0 0 0 0 0 0 0 0 0 0 0 0 0 0 0 0 0 0 0 0 0 0 0 0 0 0 0 0 0 0 0 0 0 0 0 0 0 0 0
0 0 0 0 0 0 0 0 0 0 0 0 0 0 0 0 0 0 0 0 0 0 0 0 0 0 0 0 0 0 0 0 0 0 0 0 0 0 0 0 0 0 0
0 0 0 0 0 0 0 0 0 0 0 0 0 0 0 0 0 0 0 0 0 0 0 0 0 0 0 0 0 0 0 0 0 0 0 0 0 0 0 0 0 0 0
0 0 0 0 0 0 0 0 0 0 0 0 0 0 0 0 0 0 0 0 0 0 0 0 0 0 0 0 0 0 0 0 0 0 0 0 0 0 0 0 0 0 0
0 0 0 0 0 0 0 0 0 0 0 0 0 0 0 0 0 0 0 0 0 0 0 0 0 0 0 0 0 0 0 0 0 0 0 0 0 0 0 0 0 0 0

GEFSGL_con_probscp_126.txt.gz
Probability
19 20 20 20 18 14 12 10 10 11 15 20 20 17 14 13 12 11 9 10 11 11 12 11 9 10 11 11 11 11 10 6 3 5 11 15 15 14 9 5 2 1 0
19 21 21 21 19 17 14 13 12 12 14 17 18 17 13 11 9 8 7 7 8 10 11 9 7 7 8 9 10 9 8 5 3 5 9 11 10 8 6 3 1 0 0
20 21 21 19 18 17 16 15 15 14 12 13 15 14 11 8 7 6 5 5 6 7 8 6 5 4 4 5 6 5 3 2 3 4 5 5 3 2 2 1 0 0 0
21 21 19 16 14 15 16 16 16 14 11 11 12 12 10 8 7 7 6 6 6 5 5 4 3 3 3 3 2 1 0 0 1 2 3 2 0 0 0 0 0 0 0
20 18 17 15 12 12 14 16 16 14 11 9 9 10 10 8 7 8 7 6 5 4 4 3 3 3 3 2 1 0 0 0 0 1 1 0 0 0 0 0 0 0 0
15 14 15 14 13 12 13 15 16 14 11 8 7 8 8 6 5 5 5 5 4 3 3 3 3 3 1 1 0 0 0 0 0 0 0 1 1 1 0 0 0 0 0
13 14 15 15 15 14 14 15 15 13 10 8 8 8 6 3 2 2 2 4 4 3 3 3 3 2 1 0 0 0 0 0 0 0 0 1 2 1 0 0 0 0 0
16 17 18 18 17 17 17 15 13 12 11 10 10 9 6 2 0 0 1 2 3 3 3 3 3 3 1 0 0 0 0 0 0 0 0 1 1 1 0 0 0 0 0
20 21 22 21 20 20 18 15 14 15 15 13 12 9 5 1 0 0 0 1 1 2 2 2 2 2 1 0 0 0 0 0 0 0 0 0 0 0 0 0 0 0 0
26 26 25 24 22 22 20 18 17 18 16 13 10 6 3 1 0 0 0 1 2 2 1 1 1 1 1 0 0 0 0 0 0 0 0 0 0 0 0 0 0 0 0
30 28 26 23 20 21 21 19 16 14 12 8 5 3 1 0 0 0 0 1 2 2 1 0 0 0 0 0 0 0 0 0 0 0 0 0 0 0 0 0 0 0 0
29 25 22 18 16 16 18 15 11 9 7 4 1 1 0 0 0 0 0 0 1 1 0 0 0 0 0 0 0 0 0 0 0 0 0 0 0 0 0 0 0 0 0
24 21 18 15 13 13 13 11 8 5 3 1 0 0 0 0 0 0 0 0 0 0 0 0 0 0 0 0 0 0 0 0 0 0 0 0 0 0 0 0 0 0 0
19 18 16 14 12 10 8 6 4 3 2 1 0 0 0 0 0 0 0 0 0 0 0 0 0 0 0 0 0 0 0 0 0 0 0 0 0 0 0 0 0 0 0
15 15 14 12 9 5 3 2 1 1 1 0 0 0 0 0 0 0 0 0 0 0 0 0 0 0 0 0 0 0 0 0 0 0 0 0 0 0 0 0 0 0 0
11 10 9 8 5 2 0 0 0 0 0 0 0 0 0 0 0 0 0 0 0 0 0 0 0 0 0 0 0 0 0 0 0 0 0 0 0 0 0 0 0 0 0
6 5 3 3 2 1 0 0 0 0 0 0 0 0 0 0 0 0 0 0 0 0 0 0 0 0 0 0 0 0 0 0 0 0 0 0 0 0 0 0 0 0 0
3 2 1 0 0 0 0 0 0 0 0 0 0 0 0 0 0 0 0 0 0 0 0 0 0 0 0 0 0 0 0 0 0 0 0 0 0 0 0 0 0 0 0
1 0 0 0 0 0 0 0 0 0 0 0 0 0 0 0 0 0 0 0 0 0 0 0 0 0 0 0 0 0 0 0 0 0 0 0 0 0 0 0 0 0 0
0 0 0 0 0 0 0 0 0 0 0 0 0 0 0 0 0 0 0 0 0 0 0 0 0 0 0 0 0 0 0 0 0 0 0 0 0 0 0 0 0 0 0
0 0 0 0 0 0 0 0 0 0 0 0 0 0 0 0 0 0 0 0 0 0 0 0 0 0 0 0 0 0 0 0 0 0 0 0 0 0 0 0 0 0 0
0 0 0 0 0 0 0 0 0 0 0 0 0 0 0 0 0 0 0 0 0 0 0 0 0 0 0 0 0 0 0 0 0 0 0 0 0 0 0 0 0 0 0
0 0 0 0 0 0 0 0 0 0 0 0 0 0 0 0 0 0 0 0 0 0 0 0 0 0 0 0 0 0 0 0 0 0 0 0 0 0 0 0 0 0 0
0 0 0 0 0 0 0 0 0 0 0 0 0 0 0 0 0 0 0 0 0 0 0 0 0 0 0 0 0 0 0 0 0 0 0 0 0 0 0 0 0 0 0
0 0 0 0 0 0 0 0 0 0 0 0 0 0 0 0 0 0 0 0 0 0 0 0 0 0 0 0 0 0 0 0 0 0 0 0 0 0 0 0 0 0 0
0 0 0 0 0 0 0 0 0 0 0 0 0 0 0 0 0 0 0 0 0 0 0 0 0 0 0 0 0 0 0 0 0 0 0 0 0 0 0 0 0 0 0

GEFSGL_con_probscp_132.txt.gz
Probability
7 6 4 3 1 0 0 0 0 0 0 0 0 0 0 0 0 1 0 0 0 0 0 0 0 0 0 0 0 0 0 0 0 0 0 0 0 0 0 0 0 0 0
7 5 3 3 2 0 0 0 0 0 0 0 0 0 0 0 0 1 1 0 0 0 0 0 0 0 0 0 0 0 0 0 0 0 0 0 0 0 0 0 0 0 0
4 3 2 2 1 0 0 0 0 0 0 0 0 0 0 0 0 1 2 1 1 0 0 0 0 0 0 0 0 0 0 0 0 0 0 0 0 0 0 0 0 0 0
2 1 0 0 0 0 0 0 0 0 0 0 0 0 0 0 0 1 2 2 1 0 0 0 0 0 0 0 0 0 0 0 0 0 0 0 0 0 0 0 0 0 0
1 0 0 0 0 0 0 1 1 0 0 0 0 1 1 1 1 2 2 2 1 0 0 0 0 0 0 0 0 0 0 0 0 0 0 0 0 0 0 0 0 0 0
0 0 0 0 0 1 1 2 2 1 0 0 0 1 2 1 1 1 2 2 2 1 1 0 0 0 0 0 0 0 0 0 0 0 0 0 0 0 0 0 0 0 0
1 1 1 1 1 1 2 2 2 1 0 0 0 1 1 1 0 0 1 1 2 2 1 1 0 0 0 0 0 0 0 0 0 0 0 0 0 0 0 0 0 0 0
4 3 3 2 1 1 1 1 1 0 0 0 0 0 0 0 0 0 0 0 1 1 1 1 0 0 0 0 0 0 0 0 0 0 0 0 0 0 0 0 0 0 0
7 5 3 2 1 1 0 0 0 0 0 0 0 0 0 0 0 0 0 0 0 0 0 0 0 0 0 0 0 0 0 0 0 0 0 0 0 0 0 0 0 0 0
7 5 3 3 4 3 1 0 0 0 0 0 0 0 0 0 0 0 0 0 0 0 0 0 0 0 0 0 0 0 0 0 0 0 0 0 0 0 0 0 0 0 0
5 5 4 5 5 4 2 1 0 0 0 0 0 0 0 0 0 0 0 0 0 0 0 0 0 0 0 0 0 0 0 0 0 0 0 0 0 0 0 0 0 0 0
4 4 4 4 4 4 3 2 1 0 0 0 0 0 0 0 0 0 0 0 0 0 0 0 0 0 0 0 0 0 0 0 0 0 0 0 0 0 0 0 0 0 0
3 3 3 3 3 4 3 3 1 0 0 0 0 0 0 0 0 0 0 0 0 0 0 0 0 0 0 0 0 0 0 0 0 0 0 0 0 0 0 0 0 0 0
3 3 3 3 3 3 3 2 1 0 0 0 0 0 0 0 0 0 0 0 0 0 0 0 0 0 0 0 0 0 0 0 0 0 0 0 0 0 0 0 0 0 0
2 3 3 3 3 2 2 1 1 0 0 0 0 0 0 0 0 0 0 0 0 0 0 0 0 0 0 0 0 0 0 0 0 0 0 0 0 0 0 0 0 0 0
1 1 2 2 1 1 1 0 0 0 0 0 0 0 0 0 0 0 0 0 0 0 0 0 0 0 0 0 0 0 0 0 0 0 0 0 0 0 0 0 0 0 0
0 0 1 1 0 0 0 0 0 0 0 0 0 0 0 0 0 0 0 0 0 0 0 0 0 0 0 0 0 0 0 0 0 0 0 0 0 0 0 0 0 0 0
0 0 0 0 0 0 0 0 0 0 0 0 0 0 0 0 0 0 0 0 0 0 0 0 0 0 0 0 0 0 0 0 0 0 0 0 0 0 0 0 0 0 0
0 0 0 0 0 0 0 0 0 0 0 0 0 0 0 0 0 0 0 0 0 0 0 0 0 0 0 0 0 0 0 0 0 0 0 0 0 0 0 0 0 0 0
0 0 0 0 0 0 0 0 0 0 0 0 0 0 0 0 0 0 0 0 0 0 0 0 0 0 0 0 0 0 0 0 0 0 0 0 0 0 0 0 0 0 0
0 0 0 0 0 0 0 0 0 0 0 0 0 0 0 0 0 0 0 0 0 0 0 0 0 0 0 0 0 0 0 0 0 0 0 0 0 0 0 0 0 0 0
0 0 0 0 0 0 0 0 0 0 0 0 0 0 0 0 0 0 0 0 0 0 0 0 0 0 0 0 0 0 0 0 0 0 0 0 0 0 0 0 0 0 0
0 0 0 0 0 0 0 0 0 0 0 0 0 0 0 0 0 0 0 0 0 0 0 0 0 0 0 0 0 0 0 0 0 0 0 0 0 0 0 0 0 0 0
0 0 0 0 0 0 0 0 0 0 0 0 0 0 0 0 0 0 0 0 0 0 0 0 0 0 0 0 0 0 0 0 0 0 0 0 0 0 0 0 0 0 0
0 0 0 0 0 0 0 0 0 0 0 0 0 0 0 0 0 0 0 0 0 0 0 0 0 0 0 0 0 0 0 0 0 0 0 0 0 0 0 0 0 0 0
0 0 0 0 0 0 0 0 0 0 0 0 0 0 0 0 0 0 0 0 0 0 0 0 0 0 0 0 0 0 0 0 0 0 0 0 0 0 0 0 0 0 0

GEFSGL_con_probscp_138.txt.gz
Probability
4 4 3 2 2 2 1 0 0 0 0 0 0 0 0 0 0 0 0 0 0 0 0 0 0 0 0 0 0 0 0 0 0 0 0 0 0 0 0 0 0 0 0
4 4 3 2 2 3 2 1 0 0 0 0 0 0 0 0 0 0 0 0 0 0 0 0 0 0 0 0 0 0 0 0 0 0 0 0 0 0 0 0 0 0 0
3 3 2 2 2 2 2 1 0 0 0 0 0 0 0 0 0 0 0 0 0 0 0 0 0 0 0 0 0 0 0 0 0 0 0 0 0 0 0 0 0 0 0
2 2 1 1 1 1 1 0 0 0 0 0 0 0 0 0 0 0 0 0 0 0 0 0 0 0 0 0 0 0 0 0 0 0 0 0 0 0 0 0 0 0 0
1 1 0 0 0 0 0 0 0 1 0 0 0 0 0 0 0 0 0 0 0 0 0 0 0 0 0 0 0 0 0 0 0 0 0 0 0 0 0 0 0 0 0
0 0 0 0 0 0 0 0 0 0 0 0 0 0 0 0 0 0 0 0 0 0 0 1 1 1 0 0 0 0 0 0 0 0 0 0 0 0 0 0 0 0 0
0 0 0 0 0 0 0 0 0 0 0 0 0 0 0 0 0 0 0 0 0 0 0 1 2 2 1 1 0 0 0 0 0 0 0 0 0 0 0 0 0 0 0
0 0 0 0 0 0 0 0 0 0 0 0 0 0 0 0 0 0 0 0 0 0 0 1 1 2 2 1 0 0 0 0 0 0 0 0 0 0 0 0 0 0 0
0 0 0 1 1 1 1 0 0 0 0 0 0 0 0 0 0 0 0 0 0 0 0 0 0 1 1 1 0 0 0 0 0 0 0 0 0 0 0 0 0 0 0
0 0 0 1 2 2 2 1 0 0 0 0 0 0 0 0 0 0 0 0 0 0 0 0 0 0 0 0 0 0 0 0 0 0 0 0 0 0 0 0 0 0 0
0 0 0 2 3 3 3 2 1 0 0 0 0 0 0 0 0 0 0 0 0 0 0 0 0 0 0 0 0 0 0 0 0 0 0 0 0 0 0 0 0 0 0
0 0 0 1 2 3 3 2 1 0 0 0 0 0 0 0 0 0 0 0 0 0 0 0 0 0 0 0 0 0 0 0 0 0 0 0 0 0 0 0 0 0 0
0 0 0 1 1 1 3 3 1 0 0 0 0 0 0 0 0 0 0 0 0 0 0 0 0 0 0 0 0 0 0 0 0 0 0 0 0 0 0 0 0 0 0
0 0 0 0 0 1 2 3 2 1 1 0 0 0 0 0 0 0 0 0 0 0 0 0 0 0 0 0 0 0 0 0 0 0 0 0 0 0 0 0 0 0 0
0 0 0 0 0 0 1 2 2 2 1 0 0 0 0 0 0 0 0 0 0 0 0 0 0 0 0 0 0 0 0 0 0 0 0 0 0 0 0 0 0 0 0
0 0 0 0 0 0 0 1 1 1 1 0 0 0 0 0 0 0 0 0 0 0 0 0 0 0 0 0 0 0 0 0 0 0 0 0 0 0 0 0 0 0 0
0 0 0 0 0 0 0 0 0 0 0 0 0 0 0 0 0 0 0 0 0 0 0 0 0 0 0 0 0 0 0 0 0 0 0 0 0 0 0 0 0 0 0
0 0 0 0 0 0 0 0 0 0 0 0 0 0 0 0 0 0 0 0 0 0 0 0 0 0 0 0 0 0 0 0 0 0 0 0 0 0 0 0 0 0 0
0 0 0 0 0 0 0 0 0 0 0 0 0 0 0 0 0 0 0 0 0 0 0 0 0 0 0 0 0 0 0 0 0 0 0 0 0 0 0 0 0 0 0
0 0 0 0 0 0 0 0 0 0 0 0 0 0 0 0 0 0 0 0 0 0 0 0 0 0 0 0 0 0 0 0 0 0 0 0 0 0 0 0 0 0 0
0 0 0 0 0 0 0 0 0 0 0 0 0 0 0 0 0 0 0 0 0 0 0 0 0 0 0 0 0 0 0 0 0 0 0 0 0 0 0 0 0 0 0
0 0 0 0 0 0 0 0 0 0 0 0 0 0 0 0 0 0 0 0 0 0 0 0 0 0 0 0 0 0 0 0 0 0 0 0 0 0 0 0 0 0 0
0 0 0 0 0 0 0 0 0 0 0 0 0 0 0 0 0 0 0 0 0 0 0 0 0 0 0 0 0 0 0 0 0 0 0 0 0 0 0 0 0 0 0
0 0 0 0 0 0 0 0 0 0 0 0 0 0 0 0 0 0 0 0 0 0 0 0 0 0 0 0 0 0 0 0 0 0 0 0 0 0 0 0 0 0 0
0 0 0 0 0 0 0 0 0 0 0 0 0 0 0 0 0 0 0 0 0 0 0 0 0 0 0 0 0 0 0 0 0 0 0 0 0 0 0 0 0 0 0
0 0 0 0 0 0 0 0 0 0 0 0 0 0 0 0 0 0 0 0 0 0 0 0 0 0 0 0 0 0 0 0 0 0 0 0 0 0 0 0 0 0 0

GEFSGL_con_probscp_144.txt.gz
Probability
8 8 7 4 4 6 6 4 3 3 2 1 0 1 2 4 5 4 4 6 6 6 7 6 7 9 10 9 5 5 7 9 8 7 6 4 2 2 4 5 3 1 0
9 8 6 5 5 5 5 4 3 3 3 1 0 0 2 3 4 4 4 5 5 6 5 5 6 8 9 7 5 4 5 7 8 7 5 5 4 2 3 4 3 1 0
8 8 7 5 5 4 4 3 3 4 3 1 0 1 2 3 3 4 5 4 5 6 5 5 6 7 8 7 6 5 4 6 8 8 6 6 5 3 2 3 3 2 1
6 5 5 4 3 3 3 3 3 3 3 2 1 2 3 3 4 5 5 5 6 7 7 7 6 6 6 6 6 6 6 8 11 9 7 6 5 3 3 3 3 2 2
2 2 1 1 1 1 1 1 2 2 3 4 3 3 3 3 3 4 4 5 6 6 7 7 5 3 3 3 4 5 6 9 12 11 9 7 6 4 3 2 1 1 2
1 1 1 1 1 1 1 1 2 2 3 5 4 3 4 3 3 2 2 3 4 6 6 5 3 1 1 1 2 2 3 6 8 9 9 8 7 5 3 2 1 1 2
2 3 3 3 3 3 4 4 4 4 5 6 6 6 5 4 3 1 0 1 3 4 5 4 2 1 1 1 0 0 0 1 3 4 5 6 7 5 3 3 2 3 3
6 7 7 6 6 6 7 7 8 8 8 9 9 9 8 6 3 1 0 1 2 4 4 3 3 2 1 0 0 0 0 0 0 1 2 4 5 4 3 3 3 3 3
11 11 9 8 7 7 9 10 11 11 11 11 11 11 9 6 2 0 1 2 3 4 4 3 2 2 1 0 0 0 0 0 0 0 0 1 2 2 2 3 3 3 3
13 11 9 8 8 9 10 11 12 14 13 10 9 8 8 6 2 0 1 2 3 4 4 2 1 1 0 0 0 0 0 0 0 0 0 1 1 1 2 2 3 3 3
11 10 9 8 9 9 10 10 11 12 11 9 7 6 5 4 2 1 1 2 3 3 3 1 0 0 0 0 0 0 0 0 0 0 1 2 2 2 1 1 2 2 1
8 8 8 7 7 7 8 8 8 8 7 7 6 5 4 3 2 1 0 1 2 3 2 1 0 0 0 0 0 0 0 0 0 0 1 1 1 1 1 0 1 1 0
7 7 7 6 5 5 6 6 6 5 5 5 5 4 3 3 2 1 0 0 1 2 2 1 0 0 0 0 0 0 0 0 0 0 0 0 0 0 0 0 0 0 0
8 8 7 5 4 6 6 6 6 5 4 3 3 3 3 3 2 1 0 0 0 1 1 0 0 0 0 0 0 0 0 0 0 0 0 0 0 0 0 0 0 0 0
8 8 6 4 3 4 5 4 4 3 3 2 2 3 3 2 1 0 0 0 0 0 0 0 0 0 0 0 0 0 0 0 0 0 0 0 0 0 0 0 0 0 0
7 6 5 3 3 2 2 1 1 1 1 1 1 1 2 1 0 0 0 0 0 0 0 0 0 0 0 0 0 0 0 0 0 0 0 0 0 0 0 0 0 0 0
6 6 6 5 4 2 0 0 0 0 1 1 0 0 0 0 0 0 0 0 0 0 0 0 0 0 0 0 0 0 0 0 0 0 0 0 0 0 0 0 0 0 0
6 6 6 5 4 2 1 0 0 0 1 1 0 0 0 0 0 0 0 0 0 0 0 0 0 0 0 0 0 0 0 0 0 0 0 0 0 0 0 0 0 0 0
6 5 5 4 3 3 2 1 0 0 1 1 0 0 0 0 0 0 0 0 0 0 0 0 0 0 0 0 0 0 0 0 0 0 0 0 0 0 0 0 0 0 0
4 3 2 2 3 3 3 2 1 0 0 0 0 0 0 0 0 0 0 0 0 0 0 0 0 0 0 0 0 0 0 0 0 0 0 0 0 0 0 0 0 0 0
3 3 1 1 3 3 3 2 1 0 0 0 0 0 0 0 0 0 0 0 0 0 0 0 0 0 0 0 0 0 0 0 0 0 0 0 0 0 0 0 0 0 0
2 2 2 2 2 2 1 1 0 0 0 0 0 0 0 0 0 0 0 0 0 0 0 0 0 0 0 0 0 0 0 0 0 0 0 0 0 0 0 0 0 0 0
1 1 2 2 2 1 0 0 0 0 0 0 0 0 0 0 0 0 0 0 0 0 0 0 0 0 0 0 0 0 0 0 0 0 0 0 0 0 0 0 0 0 0
0 0 1 1 1 0 0 0 0 0 0 0 0 0 0 0 0 0 0 0 0 0 0 0 0 0 0 0 0 0 0 0 0 0 0 0 0 0 0 0 0 0 0
0 0 0 0 0 0 0 0 0 0 0 0 0 0 0 0 0 0 0 0 0 0 0 0 0 0 0 0 0 0 0 0 0 0 0 0 0 0 0 0 0 0 0
0 0 0 0 0 0 0 0 0 0 0 0 0 0 0 0 0 0 0 0 0 0 0 0 0 0 0 0 0 0 0 0 0 0 0 0 0 0 0 0 0 0 0

GEFSGL_con_probscp_150.txt.gz
Probability
35 33 30 25 22 19 15 13 13 11 11 13 12 10 7 2 1 3 6 8 7 5 5 6 9 11 11 8 5 7 11 10 7 6 7 8 8 7 6 7 5 2 1
34 32 28 23 20 17 13 13 13 12 12 12 11 9 6 3 3 5 6 6 5 4 4 5 7 9 10 7 5 7 9 9 8 8 8 8 8 9 10 7 3 2 2
30 27 23 21 18 15 13 12 12 12 10 9 8 8 6 5 6 7 7 5 4 4 5 6 7 8 8 6 5 6 7 7 7 8 8 7 7 9 10 6 2 1 2
28 24 21 19 16 13 12 10 9 8 6 5 6 7 6 6 7 8 8 7 6 6 7 8 9 8 7 5 4 5 6 6 7 6 6 5 6 7 7 5 3 2 2
29 25 21 17 13 11 9 8 6 4 4 4 5 6 5 4 4 6 7 8 9 9 9 9 8 7 5 3 3 3 4 6 7 6 4 4 4 4 4 4 3 3 3
31 27 21 15 11 9 9 9 9 8 6 5 5 5 4 2 2 2 4 7 9 10 9 8 6 4 2 1 1 1 2 4 5 4 3 3 2 2 1 2 2 3 3
34 28 21 15 12 11 12 13 13 12 9 6 5 5 4 3 1 0 1 5 8 9 9 9 7 4 2 0 0 0 1 1 2 2 3 3 2 0 0 0 1 1 2
35 29 23 19 17 16 16 15 15 13 10 8 7 8 7 4 2 0 1 3 5 7 8 8 7 5 2 1 0 0 0 0 0 1 1 2 1 0 0 0 0 0 1
35 30 25 23 22 20 17 16 14 13 11 9 8 9 8 5 2 0 1 2 3 5 5 5 5 4 3 1 1 1 1 1 0 0 0 0 0 0 0 0 0 0 0
36 33 28 26 26 23 18 15 13 12 11 9 9 8 7 4 2 1 0 1 2 3 3 3 3 3 2 1 1 2 3 2 1 0 0 0 0 0 0 0 0 0 0
37 35 32 29 26 23 19 16 13 11 10 9 8 7 6 4 3 1 0 1 2 3 3 3 3 1 1 0 1 2 2 2 1 0 0 0 0 0 0 0 0 0 0
39 37 33 30 25 20 19 17 13 11 10 9 7 5 4 3 3 2 1 0 1 2 3 3 2 1 0 0 0 1 1 1 2 1 0 0 1 0 0 0 0 0 0
40 37 33 29 25 22 19 16 13 11 10 8 6 4 3 3 3 3 1 0 0 1 2 1 1 0 0 0 0 0 0 1 2 1 0 0 0 0 0 0 0 0 0
36 33 29 26 23 21 18 15 14 11 8 6 5 4 3 3 3 2 1 1 0 0 0 0 0 0 0 0 0 0 0 0 1 1 0 0 0 0 0 0 0 0 0
29 26 23 21 18 16 13 12 11 8 5 3 3 3 2 2 1 1 1 1 1 0 0 0 0 0 0 0 0 0 0 0 0 0 0 0 0 0 0 0 0 0 0
24 22 19 17 15 12 10 9 6 4 2 1 1 1 1 1 0 0 0 0 0 0 0 0 0 0 0 0 0 0 0 0 0 0 0 0 0 0 0 0 0 0 0
21 20 17 15 12 10 9 7 5 2 0 0 0 0 0 0 0 0 0 0 0 0 0 0 0 0 0 0 0 0 0 0 0 0 0 0 0 0 0 0 0 0 0
19 17 15 13 11 9 7 6 4 2 1 1 0 0 0 0 0 0 0 0 0 0 0 0 0 0 0 0 0 0 0 0 0 0 0 0 0 0 0 0 0 0 0
15 13 11 10 8 7 5 4 3 3 3 2 1 0 0 0 0 0 0 0 0 0 0 0 0 0 0 0 0 0 0 0 0 0 0 0 0 0 0 0 0 0 0
10 8 6 5 5 5 4 3 3 3 3 2 1 0 0 0 0 0 0 0 0 0 0 0 0 0 0 0 0 0 0 0 0 0 0 0 0 0 0 0 0 0 0
4 3 2 2 3 2 2 3 3 3 3 3 1 0 0 0 0 0 0 0 0 0 0 0 0 0 0 0 0 0 0 0 0 0 0 0 0 0 0 0 0 0 0
2 1 1 2 2 2 2 3 3 3 3 3 2 1 0 0 0 0 0 0 0 0 0 0 0 0 0 0 0 0 0 0 0 0 0 0 0 0 0 0 0 0 0
2 1 1 1 1 1 2 2 3 3 3 3 2 1 0 0 0 0 0 0 0 0 0 0 0 0 0 0 0 0 0 0 0 0 0 0 0 0 0 0 0 0 0
1 0 0 0 0 0 1 1 1 2 2 2 1 0 0 0 0 0 0 0 0 0 0 0 0 0 0 0 0 0 0 0 0 0 0 0 0 0 0 0 0 0 0
0 0 0 0 0 0 0 0 0 1 1 1 0 0 0 0 0 0 0 0 0 0 0 0 0 0 0 0 0 0 0 0 0 0 0 0 0 0 0 0 0 0 0
0 0 0 0 0 0 0 0 0 0 0 0 0 0 0 0 0 0 0 0 0 0 0 0 0 0 0 0 0 0 0 0 0 0 0 0 0 0 0 0 0 0 0

GEFSGL_con_probscp_156.txt.gz
Probability
14 12 8 6 6 5 5 5 5 4 3 2 2 2 2 2 1 0 0 0 0 0 0 0 0 0 0 0 0 0 0 0 0 0 0 0 0 0 0 0 0 0 0
11 10 6 5 4 3 3 2 2 2 1 1 1 1 1 1 0 0 0 0 0 0 0 0 0 0 0 0 0 0 0 0 0 0 0 0 0 0 0 0 0 0 0
9 6 4 4 3 2 1 0 0 0 0 0 0 0 0 0 0 0 0 0 0 0 0 0 0 0 0 0 0 0 0 0 0 0 0 0 0 0 0 0 0 0 0
7 5 3 2 2 1 0 0 0 0 0 0 0 0 0 0 0 0 0 0 0 0 0 0 0 0 0 0 0 0 0 0 0 0 0 0 0 0 0 0 0 0 0
9 7 4 2 1 0 0 0 0 0 0 0 0 0 0 0 0 0 0 0 0 0 0 0 0 0 0 0 0 0 0 0 0 0 0 0 0 0 0 0 0 0 0
13 10 6 4 3 1 1 0 0 0 0 0 0 1 1 0 0 0 0 0 0 0 0 0 0 0 0 0 0 0 0 0 0 0 0 0 0 0 0 0 0 0 0
15 12 7 6 5 4 3 1 1 0 0 0 1 1 0 0 0 0 0 0 0 0 0 0 0 0 0 0 0 0 0 0 0 0 0 0 0 0 0 0 0 0 0
14 10 6 5 5 5 4 3 1 0 0 0 0 0 0 0 0 0 0 0 0 0 0 0 0 0 0 0 0 0 0 0 0 0 0 0 0 0 0 0 0 0 0
10 7 4 4 4 4 4 2 1 0 0 0 0 0 0 0 0 0 0 0 0 0 0 0 0 0 0 0 0 0 0 0 0 0 0 0 0 0 0 0 0 0 0
8 6 5 5 5 4 2 1 0 0 0 0 0 0 0 0 0 0 0 0 0 0 0 0 0 0 0 0 0 0 0 0 0 0 0 0 0 0 0 0 0 0 0
10 9 6 5 4 2 1 0 0 0 1 1 1 0 0 0 0 0 0 0 0 0 0 0 0 0 0 0 0 0 0 0 0 0 0 0 0 0 0 0 0 0 0
12 10 7 4 2 0 0 0 0 0 1 2 1 0 0 0 0 0 0 0 0 0 0 0 0 0 0 0 0 0 0 0 0 0 0 0 0 0 0 0 0 0 0
10 8 7 5 2 0 0 0 0 0 1 1 1 0 0 0 0 0 0 0 0 0 0 0 0 0 0 0 0 0 0 0 0 0 0 0 0 0 0 0 0 0 0
12 9 8 6 3 1 1 1 1 1 1 0 0 0 0 0 0 0 0 0 0 0 0 0 0 0 0 0 0 0 0 0 0 0 0 0 0 0 0 0 0 0 0
15 12 9 7 4 2 2 2 2 2 1 0 0 0 0 0 0 0 0 0 0 0 0 0 0 0 0 0 0 0 0 0 0 0 0 0 0 0 0 0 0 0 0
16 14 11 7 4 3 3 3 3 2 1 0 0 0 0 0 0 0 0 0 0 0 0 0 0 0 0 0 0 0 0 0 0 0 0 0 0 0 0 0 0 0 0
14 13 10 6 3 2 2 2 2 1 0 0 0 0 0 0 0 0 0 0 0 0 0 0 0 0 0 0 0 0 0 0 0 0 0 0 0 0 0 0 0 0 0
11 9 7 3 1 1 1 1 1 0 0 0 0 0 0 0 0 0 0 0 0 0 0 0 0 0 0 0 0 0 0 0 0 0 0 0 0 0 0 0 0 0 0
8 6 4 1 0 0 0 0 0 0 0 0 0 0 0 0 0 0 0 0 0 0 0 0 0 0 0 0 0 0 0 0 0 0 0 0 0 0 0 0 0 0 0
6 4 2 1 0 0 0 0 0 0 0 0 0 0 0 0 0 0 0 0 0 0 0 0 0 0 0 0 0 0 0 0 0 0 0 0 0 0 0 0 0 0 0
5 4 2 1 0 0 0 0 0 0 0 0 0 0 0 0 0 0 0 0 0 0 0 0 0 0 0 0 0 0 0 0 0 0 0 0 0 0 0 0 0 0 0
4 3 3 1 0 0 0 0 0 0 0 0 0 0 0 0 0 0 0 0 0 0 0 0 0 0 0 0 0 0 0 0 0 0 0 0 0 0 0 0 0 0 0
3 3 3 2 1 0 0 0 0 0 0 0 0 0 0 0 0 0 0 0 0 0 0 0 0 0 0 0 0 0 0 0 0 0 0 0 0 0 0 0 0 0 0
3 3 3 2 1 0 0 0 0 0 0 0 0 0 0 0 0 0 0 0 0 0 0 0 0 0 0 0 0 0 0 0 0 0 0 0 0 0 0 0 0 0 0
3 3 3 3 1 0 0 0 0 0 0 0 0 0 0 0 0 0 0 0 0 0 0 0 0 0 0 0 0 0 0 0 0 0 0 0 0 0 0 0 0 0 0
3 3 3 3 2 1 0 0 0 0 0 0 0 0 0 0 0 0 0 0 0 0 0 0 0 0 0 0 0 0 0 0 0 0 0 0 0 0 0 0 0 0 0

GEFSGL_con_probscp_162.txt.gz
Probability
3 2 1 0 0 0 0 0 0 0 0 0 1 1 1 0 0 0 0 0 0 0 0 0 0 0 0 0 0 0 0 0 0 0 0 0 0 0 0 0 0 0 0
3 2 1 0 0 0 0 0 0 0 0 0 1 2 1 0 0 0 0 0 0 0 0 0 0 0 0 0 0 0 0 0 0 0 0 0 0 0 0 0 0 0 0
3 1 0 0 0 0 0 0 0 0 0 0 1 1 1 0 0 0 0 0 0 0 0 0 0 0 0 0 0 0 0 0 0 0 0 0 0 0 0 0 0 0 0
2 1 0 0 0 0 0 0 0 0 1 1 0 0 0 0 0 0 0 0 0 0 0 0 0 0 0 0 0 0 0 0 0 0 0 0 0 0 0 0 0 0 0
3 3 2 1 1 1 0 0 0 1 2 1 0 0 0 0 0 0 0 0 0 0 0 0 0 0 0 0 0 0 0 0 0 0 0 0 0 0 0 0 0 0 0
6 6 6 5 3 2 1 0 0 1 1 1 0 0 0 0 0 0 0 0 0 0 0 0 0 0 0 0 0 0 0 0 0 0 0 0 0 0 0 0 0 0 0
9 9 8 6 4 2 1 0 0 0 0 0 0 0 0 0 0 0 0 0 0 0 0 0 0 0 0 0 0 0 0 0 0 0 0 0 0 0 0 0 0 0 0
10 8 7 4 2 1 1 0 0 0 0 0 0 0 0 0 0 0 0 0 0 0 0 0 0 0 0 0 0 0 0 0 0 0 0 0 0 0 0 0 0 0 0
9 6 3 2 1 1 1 0 0 0 0 0 0 0 0 0 0 0 0 0 0 0 0 0 0 0 0 0 0 0 0 0 0 0 0 0 0 0 0 0 0 0 0
7 5 2 2 2 2 2 1 0 0 0 0 0 0 0 0 0 0 0 0 0 0 0 0 0 0 0 0 0 0 0 0 0 0 0 0 0 0 0 0 0 0 0
10 7 4 3 3 3 2 1 0 0 0 0 0 0 0 0 0 0 0 0 0 0 0 0 0 0 0 0 0 0 0 0 0 0 0 0 0 0 0 0 0 0 0
14 12 8 4 3 3 2 1 0 0 0 0 0 0 0 0 0 0 0 0 0 0 0 0 0 0 0 0 0 0 0 0 0 0 0 0 0 0 0 0 0 0 0
16 14 11 7 4 4 2 1 0 0 0 0 0 0 0 0 0 0 0 0 0 0 0 0 0 0 0 0 0 0 0 0 0 0 0 0 0 0 0 0 0 0 0
14 13 11 8 6 5 2 0 0 0 0 0 0 0 0 0 0 0 0 0 0 0 0 0 0 0 0 0 0 0 0 0 0 0 0 0 0 0 0 0 0 0 0
12 12 10 8 6 5 2 0 0 0 0 0 0 0 0 0 0 0 0 0 0 0 0 0 0 0 0 0 0 0 0 0 0 0 0 0 0 0 0 0 0 0 0
13 12 9 7 6 4 2 0 0 0 0 0 0 0 0 0 0 0 0 0 0 0 0 0 0 0 0 0 0 0 0 0 0 0 0 0 0 0 0 0 0 0 0
12 10 8 7 5 3 1 0 0 0 0 0 0 0 0 0 0 0 0 0 0 0 0 0 0 0 0 0 0 0 0 0 0 0 0 0 0 0 0 0 0 0 0
8 6 5 4 4 3 1 0 0 0 0 0 0 0 0 0 0 0 0 0 0 0 0 0 0 0 0 0 0 0 0 0 0 0 0 0 0 0 0 0 0 0 0
4 3 2 2 2 2 1 0 0 0 0 0 0 0 0 0 0 0 0 0 0 0 0 0 0 0 0 0 0 0 0 0 0 0 0 0 0 0 0 0 0 0 0
4 3 1 1 1 1 1 0 0 0 0 0 0 0 0 0 0 0 0 0 0 0 0 0 0 0 0 0 0 0 0 0 0 0 0 0 0 0 0 0 0 0 0
4 3 1 0 0 0 0 0 0 0 0 0 0 0 0 0 0 0 0 0 0 0 0 0 0 0 0 0 0 0 0 0 0 0 0 0 0 0 0 0 0 0 0
2 1 1 0 0 0 0 0 0 0 0 0 0 0 0 0 0 0 0 0 0 0 0 0 0 0 0 0 0 0 0 0 0 0 0 0 0 0 0 0 0 0 0
0 0 0 0 0 0 0 0 0 0 0 0 0 0 0 0 0 0 0 0 0 0 0 0 0 0 0 0 0 0 0 0 0 0 0 0 0 0 0 0 0 0 0
0 0 0 1 1 1 1 0 0 0 0 0 0 0 0 0 0 0 0 0 0 0 0 0 0 0 0 0 0 0 0 0 0 0 0 0 0 0 0 0 0 0 0
0 0 0 1 2 2 1 0 0 0 0 0 0 0 0 0 0 0 0 0 0 0 0 0 0 0 0 0 0 0 0 0 0 0 0 0 0 0 0 0 0 0 0
0 0 0 0 1 1 1 0 0 0 0 0 0 0 0 0 0 0 0 0 0 0 0 0 0 0 0 0 0 0 0 0 0 0 0 0 0 0 0 0 0 0 0

GEFSGL_con_probscp_168.txt.gz
Probability
22 22 20 15 12 13 13 11 8 6 5 5 5 5 5 6 8 10 10 7 7 8 8 8 9 9 7 7 6 6 8 8 6 3 2 2 2 1 1 1 1 1 1
21 22 21 17 14 14 14 13 10 9 8 7 6 4 5 7 8 9 8 7 6 7 8 9 9 8 7 5 5 4 5 5 4 3 2 2 1 0 0 0 0 1 1
20 23 23 20 17 16 16 15 13 12 10 9 7 5 5 6 6 6 6 6 6 7 8 8 7 7 6 4 3 2 2 2 2 1 1 1 1 0 0 0 0 1 1
24 28 30 27 22 19 18 15 13 12 11 10 8 6 5 3 3 3 4 5 6 6 6 5 4 4 3 2 1 1 1 1 1 1 1 1 0 0 0 0 0 0 0
33 36 38 35 27 22 19 16 14 14 12 11 10 7 4 1 1 1 2 3 4 5 5 3 1 1 1 0 0 0 0 0 1 1 2 1 0 0 0 0 0 0 0
43 44 44 40 33 26 21 18 16 15 12 10 10 8 4 1 0 1 2 2 3 3 4 2 1 0 0 0 0 0 0 0 0 1 1 1 0 0 0 0 0 0 0
53 53 51 45 37 30 25 22 18 15 11 8 7 6 3 1 0 0 1 1 1 2 2 1 0 0 0 0 0 0 0 0 0 0 0 0 0 0 0 0 0 0 0
60 59 55 48 41 34 30 27 22 16 12 9 8 6 5 3 1 0 0 0 0 0 0 0 0 0 0 0 0 0 0 0 0 0 0 0 0 0 0 0 0 0 0
64 62 57 51 45 39 34 29 24 21 17 14 12 10 7 5 2 0 0 0 0 0 1 1 0 0 0 0 0 0 0 0 0 0 0 0 0 0 0 0 0 0 0
65 61 56 51 46 41 34 28 27 26 23 18 15 13 11 7 3 1 0 0 0 0 1 1 0 0 0 0 0 0 0 0 0 0 0 0 0 0 0 0 0 0 0
63 59 53 47 43 38 32 29 28 27 24 21 18 16 13 9 4 1 0 0 0 0 1 1 0 0 0 0 0 0 0 0 0 0 0 0 0 0 0 0 0 1 1
61 57 49 43 39 34 31 29 27 25 23 22 20 17 13 9 5 2 0 0 0 1 1 1 0 0 0 0 0 0 0 0 0 0 0 0 0 0 0 0 0 0 0
59 55 48 43 38 34 30 27 24 22 21 20 19 17 14 12 7 3 0 0 0 1 1 1 0 0 0 0 0 0 0 0 0 0 0 0 0 0 0 0 0 0 0
55 51 45 41 37 34 29 25 22 20 18 17 17 17 15 13 9 4 1 0 0 0 0 0 0 0 0 0 0 0 0 0 0 0 0 0 0 0 0 0 0 0 0
49 45 39 36 34 31 27 22 18 14 12 12 13 13 12 9 6 3 1 0 0 0 0 0 0 0 0 0 0 0 0 0 0 0 0 0 0 0 0 0 0 0 0
43 39 34 32 31 29 25 20 13 8 4 4 5 6 6 4 2 1 1 0 0 0 0 0 0 0 0 0 1 0 0 0 0 0 0 0 0 0 0 0 0 0 0
37 33 30 29 29 28 24 19 14 7 2 1 1 1 1 0 0 0 0 0 0 0 0 0 0 0 0 0 0 0 0 0 0 0 0 0 0 0 0 0 0 0 0
27 26 24 24 25 23 21 17 14 11 6 3 1 0 0 0 0 0 0 0 0 0 0 0 0 0 0 0 0 0 0 0 0 0 0 0 0 0 0 0 0 0 0
16 16 16 17 17 15 13 12 11 10 9 6 3 1 0 0 0 0 0 0 0 0 0 0 0 0 0 0 0 0 0 0 0 0 0 0 0 0 0 0 0 0 0
8 8 8 9 9 8 6 6 6 7 7 6 4 1 0 0 0 0 0 0 0 0 0 0 0 0 0 0 0 0 0 0 0 0 0 0 0 0 0 0 0 0 0
4 3 3 4 5 5 3 3 3 3 4 4 3 1 0 0 0 0 0 0 0 0 0 0 0 0 0 0 0 0 0 0 0 0 0 0 0 0 0 0 0 0 0
1 1 2 3 3 3 3 2 1 2 2 3 2 1 0 0 0 0 0 0 0 0 0 0 0 0 0 0 0 0 0 0 0 0 0 0 0 0 0 0 0 0 0
0 0 1 2 2 1 1 1 1 1 1 1 2 1 0 0 0 0 0 0 0 0 0 0 0 0 0 0 0 0 0 0 0 0 0 0 0 0 0 0 0 0 0
0 0 0 1 1 0 0 0 0 0 0 0 1 1 0 0 0 0 0 0 0 0 0 0 0 0 0 0 0 0 0 0 0 0 0 0 0 0 0 0 0 0 0
0 0 0 0 0 0 0 0 0 0 0 0 0 0 0 0 0 0 0 0 0 0 0 0 0 0 0 0 0 0 0 0 0 0 0 0 0 0 0 0 0 0 0
0 0 0 0 0 0 0 0 0 0 0 0 0 0 0 0 0 0 0 0 0 0 0 0 0 0 0 0 0 0 0 0 0 0 0 0 0 0 0 0 0 0 0

GEFSGL_con_probscp_174.txt.gz
Probability
52 49 46 46 44 40 34 27 22 18 16 17 19 18 16 15 15 16 18 19 17 14 10 9 8 7 8 6 4 3 3 3 3 2 1 0 0 0 0 0 0 0 0
57 56 51 48 44 39 34 29 25 20 17 18 19 19 17 15 15 16 17 17 14 11 8 8 8 8 7 5 3 2 3 3 2 2 1 0 0 0 0 0 0 0 0
62 62 57 49 43 38 34 32 30 24 19 18 19 20 19 16 15 15 15 12 9 8 7 6 7 7 6 4 1 1 2 1 1 1 0 0 0 0 0 0 0 0 0
63 63 59 52 45 39 36 35 33 26 19 18 19 20 19 16 13 13 12 9 6 6 6 6 6 6 5 3 1 0 0 0 0 0 0 0 0 0 0 0 0 0 0
65 64 62 56 50 45 42 40 36 27 20 19 20 19 16 12 9 9 9 8 6 6 6 6 5 4 3 1 0 0 0 0 0 0 0 0 0 0 0 0 0 0 0
70 67 66 63 58 55 51 46 40 32 27 25 22 18 12 7 5 5 6 8 9 8 6 5 3 1 1 0 0 0 0 0 0 0 0 0 0 0 0 0 0 0 0
73 72 71 69 67 64 58 51 47 40 35 31 25 18 12 6 3 2 3 8 12 12 9 6 4 2 1 1 1 0 0 0 0 0 0 0 0 0 0 0 0 0 0
74 75 75 74 73 70 65 60 55 46 39 34 27 20 14 8 3 0 1 6 13 14 11 9 8 6 4 3 2 1 0 0 0 0 0 0 0 0 0 0 0 0 0
78 78 78 76 75 73 69 64 56 47 41 36 29 24 20 12 5 0 1 5 11 12 11 10 9 7 4 2 2 1 0 0 0 0 0 0 0 0 0 0 0 0 0
82 82 80 77 75 72 68 61 53 46 42 37 32 29 24 17 8 1 1 5 10 10 10 9 7 4 1 0 1 1 1 0 0 0 0 0 0 0 0 0 0 0 0
85 83 79 74 69 67 66 61 52 47 44 38 34 31 26 18 9 3 1 4 7 9 9 8 5 1 0 0 1 1 1 0 0 0 0 0 0 0 0 0 0 0 0
81 78 74 68 63 61 62 60 55 50 45 39 34 30 23 17 10 4 1 1 3 5 6 5 4 1 0 0 0 0 0 0 0 0 0 0 0 0 0 0 0 0 0
75 72 68 66 62 59 58 56 52 47 41 34 31 27 20 15 10 5 1 0 0 1 2 2 1 0 0 0 0 0 0 0 0 0 0 0 0 0 0 0 0 0 0
71 69 66 64 61 56 52 47 42 38 34 31 29 26 21 16 11 6 1 0 0 0 0 0 0 0 0 0 0 0 0 0 0 0 0 0 0 0 0 0 0 0 0
65 65 64 61 57 50 43 35 29 25 23 23 23 22 19 14 10 5 2 0 0 0 0 0 0 0 0 0 0 0 0 0 0 0 0 0 0 0 0 0 0 0 0
57 57 56 54 49 43 35 28 22 16 12 10 11 11 10 8 6 3 1 0 0 0 0 0 0 0 0 0 0 0 0 0 0 0 0 0 0 0 0 0 0 0 0
51 49 45 42 39 34 30 27 24 17 10 5 3 3 3 3 1 1 0 0 0 0 0 0 0 0 0 0 0 0 0 0 0 0 0 0 0 0 0 0 0 0 0
46 41 36 32 28 25 25 26 26 23 17 11 6 2 1 1 0 0 0 0 0 0 0 0 0 0 0 0 0 0 0 0 0 0 0 0 0 0 0 0 0 0 0
35 30 26 23 20 19 20 22 23 24 21 15 9 4 1 0 0 0 0 0 0 0 0 0 0 0 0 0 0 0 0 0 0 0 0 0 0 0 0 0 0 0 0
22 17 14 15 14 14 15 16 17 19 18 13 9 5 2 0 0 0 0 0 0 0 0 0 0 0 0 0 0 0 0 0 0 0 0 0 0 0 0 0 0 0 0
11 7 5 8 10 11 11 12 13 14 13 11 8 4 1 0 0 0 0 0 0 0 0 0 0 0 0 0 0 0 0 0 0 0 0 0 0 0 0 0 0 0 0
4 2 2 4 7 8 9 10 11 10 9 9 7 3 1 0 0 0 0 0 0 0 0 0 0 0 0 0 0 0 0 0 0 0 0 0 0 0 0 0 0 0 0
1 1 1 3 4 5 6 8 8 7 7 8 8 5 2 1 1 0 0 0 0 0 0 0 0 0 0 0 0 0 0 0 0 0 0 0 0 0 0 0 0 0 0
1 1 1 2 2 3 4 5 5 5 5 6 7 5 4 2 1 0 0 0 0 0 0 0 0 0 0 0 0 0 0 0 0 0 0 0 0 0 0 0 0 0 0
2 2 2 2 2 3 4 3 2 3 3 3 5 5 4 3 2 0 0 0 0 0 0 0 0 0 0 0 0 0 0 0 0 0 0 0 0 0 0 0 0 0 0
3 3 3 3 3 4 4 2 1 1 1 1 2 3 3 3 2 0 0 0 0 0 0 0 0 0 0 0 0 0 0 0 0 0 0 0 0 0 0 0 0 0 0

GEFSGL_con_probscp_180.txt.gz
Probability
30 23 16 13 13 14 14 11 8 7 8 9 9 7 6 6 6 6 6 5 4 3 3 3 3 3 3 2 1 0 0 0 0 0 0 0 0 0 0 0 0 0 0
32 26 18 15 15 16 15 11 9 8 8 8 7 5 5 5 6 6 6 5 4 3 3 3 3 3 3 2 1 0 0 0 0 0 0 0 0 0 0 0 0 0 0
34 29 23 20 20 19 16 13 11 9 7 6 4 3 3 4 4 5 6 5 3 3 3 3 3 2 1 1 0 0 0 0 0 0 0 0 0 0 0 0 0 0 0
35 30 27 24 22 20 19 16 12 9 6 4 3 3 3 3 3 4 4 3 2 1 2 2 2 1 0 0 0 0 0 0 0 0 0 0 0 0 0 0 0 0 0
37 33 30 28 25 24 23 19 14 10 6 4 3 3 3 3 3 3 3 2 1 0 1 1 1 0 0 0 0 0 0 0 0 0 0 0 0 0 0 0 0 0 0
45 41 38 36 33 31 28 24 18 11 7 4 3 3 3 3 3 3 3 3 1 0 0 0 0 0 0 0 0 0 0 0 0 0 0 0 0 0 0 0 0 0 0
54 51 48 46 42 38 32 26 21 15 8 5 3 3 3 3 3 3 3 3 2 2 2 1 0 0 0 0 0 0 0 0 0 0 0 0 0 0 0 0 0 0 0
59 58 56 54 49 44 37 29 23 19 13 7 4 3 3 3 3 2 3 3 3 3 3 2 1 0 0 0 0 0 0 0 0 0 0 0 0 0 0 0 0 0 0
61 60 60 58 55 50 42 31 24 20 16 10 5 2 3 3 2 1 1 2 2 2 2 2 1 0 0 0 0 0 0 0 0 0 0 0 0 0 0 0 0 0 0
57 58 58 57 55 49 41 33 25 20 16 11 5 3 4 4 3 1 0 1 1 1 1 1 0 0 0 0 0 0 0 0 0 0 0 0 0 0 0 0 0 0 0
52 54 54 53 50 44 38 33 28 24 20 14 9 6 6 7 5 3 1 0 0 1 1 0 0 0 0 0 0 0 0 0 0 0 0 0 0 0 0 0 0 0 0
50 50 51 50 46 40 36 34 32 30 27 22 15 10 9 9 8 5 2 0 1 2 2 1 0 0 0 0 0 0 0 0 0 0 0 0 0 0 0 0 0 0 0
45 45 45 45 42 39 37 34 32 32 32 27 21 15 12 12 10 6 3 1 1 2 2 1 0 0 0 0 0 0 0 0 0 0 0 0 0 0 0 0 0 0 0
38 37 36 37 38 38 37 33 31 31 30 26 22 19 16 14 12 8 5 1 0 1 1 1 0 0 0 0 0 0 0 0 0 0 0 0 0 0 0 0 0 0 0
32 29 28 30 33 35 33 29 26 24 21 18 16 15 15 13 11 8 4 1 0 0 0 0 0 0 0 0 0 0 0 0 0 0 0 0 0 0 0 0 0 0 0
26 24 23 25 27 28 27 22 17 13 10 8 7 7 8 8 7 4 2 0 0 0 0 0 0 0 0 0 0 0 0 0 0 0 0 0 0 0 0 0 0 0 0
21 19 17 19 21 22 20 16 11 7 4 2 2 2 2 2 2 1 0 0 0 0 0 0 0 0 0 0 0 0 0 0 0 0 0 0 0 0 0 0 0 0 0
15 13 12 13 14 15 14 12 8 5 3 3 2 1 0 0 0 0 0 0 0 0 0 0 0 0 0 0 0 0 0 0 0 0 0 0 0 0 0 0 0 0 0
9 8 8 9 9 9 8 8 6 5 3 3 2 1 0 0 0 0 0 0 0 0 0 0 0 0 0 0 0 0 0 0 0 0 0 0 0 0 0 0 0 0 0
6 5 5 6 7 6 6 6 5 4 3 2 1 0 0 0 0 0 0 0 0 1 0 0 0 0 0 0 0 0 0 0 0 0 0 0 0 0 0 0 0 0 0
3 3 4 5 5 4 4 4 4 3 2 1 0 0 0 0 0 0 0 0 0 0 0 0 0 0 0 0 0 0 0 0 0 0 0 0 0 0 0 0 0 0 0
2 3 3 4 4 3 3 3 2 2 1 0 0 0 0 0 0 0 0 0 0 0 0 0 0 0 0 0 0 0 0 0 0 0 0 0 0 0 0 0 0 0 0
1 2 3 3 2 2 2 1 1 1 0 0 0 0 0 0 0 0 0 0 0 0 0 0 0 0 0 0 0 0 0 0 0 0 0 0 0 0 0 0 0 0 0
1 2 2 1 1 1 1 0 0 0 0 0 0 0 0 0 0 0 0 0 0 0 0 0 0 0 0 0 0 0 0 0 0 0 0 0 0 0 0 0 0 0 0
1 1 1 0 0 0 0 0 0 0 0 0 0 0 0 0 0 0 0 0 0 0 0 0 0 0 0 0 0 0 0 0 0 0 0 0 0 0 0 0 0 0 0
0 1 0 0 0 0 0 0 0 0 0 0 0 0 0 0 0 0 0 0 0 0 0 0 0 0 0 0 0 0 0 0 0 0 0 0 0 0 0 0 0 0 0

GEFSGL_con_probscp_186.txt.gz
Probability
11 14 17 16 12 9 6 5 4 4 4 4 2 1 1 2 3 3 3 3 3 4 5 4 3 2 2 2 2 3 2 1 0 0 0 0 0 0 0 0 0 0 0
15 17 19 18 14 10 7 7 7 6 5 4 3 2 2 3 3 3 3 3 3 3 4 3 2 1 1 1 1 2 2 1 0 0 0 0 0 0 0 0 0 0 0
21 22 23 21 16 12 10 9 8 6 4 3 3 3 3 3 3 3 3 3 3 3 3 3 2 1 1 0 0 1 1 0 0 0 0 0 0 0 0 0 0 0 0
25 25 25 23 21 17 15 12 10 6 3 2 3 3 3 3 3 3 3 3 3 3 3 3 3 3 2 1 0 0 0 0 0 0 0 0 0 0 0 0 0 0 0
29 29 28 27 26 23 20 18 14 9 4 2 3 3 2 2 2 2 2 3 3 3 3 3 3 3 2 1 0 0 0 0 0 0 0 0 0 0 0 0 0 0 0
32 34 35 33 31 28 25 22 19 13 8 5 4 3 1 1 1 1 1 1 2 3 3 3 3 3 2 1 0 0 0 0 0 0 0 0 0 0 0 0 0 0 0
36 37 39 39 36 33 29 25 22 19 15 10 6 4 2 1 0 0 0 0 1 1 3 3 3 2 1 0 0 0 0 0 0 0 0 0 0 0 0 0 0 0 0
40 39 39 41 41 38 33 29 26 22 18 13 8 5 3 1 0 0 0 0 0 1 2 2 2 1 0 0 0 0 0 0 0 0 0 0 0 0 0 0 0 0 0
40 40 40 42 43 40 34 31 28 24 18 13 9 6 3 1 0 0 0 1 1 1 1 1 1 0 0 0 0 0 0 0 0 0 0 0 0 0 0 0 0 0 0
40 40 42 43 41 36 32 30 28 24 18 13 9 7 5 3 1 0 1 2 3 3 1 1 1 0 0 0 0 0 0 0 0 0 0 0 0 0 0 0 0 0 0
43 43 42 41 37 32 28 27 25 22 17 12 9 7 6 4 1 0 1 2 5 5 4 3 2 1 0 0 0 0 0 0 0 0 0 0 0 0 0 0 0 0 0
43 42 40 38 34 30 27 26 25 22 16 12 10 8 7 6 3 0 0 1 3 5 5 5 3 1 0 0 0 0 0 0 0 0 0 0 0 0 0 0 0 0 0
36 37 35 33 32 29 28 29 28 25 20 16 12 11 10 9 5 2 1 1 1 2 3 3 2 0 0 0 0 0 0 0 0 0 0 0 0 0 0 0 0 0 0
26 28 30 29 29 28 27 28 29 28 25 20 17 17 17 14 9 5 3 2 0 0 1 1 1 1 1 0 0 0 0 0 0 0 0 0 0 0 0 0 0 0 0
19 22 25 24 24 23 20 19 21 21 20 18 17 18 18 15 9 5 3 1 0 0 0 1 2 2 2 1 0 1 1 1 0 0 0 0 0 0 0 0 0 0 0
17 18 19 18 17 15 13 12 11 10 9 8 8 9 10 8 5 2 1 0 0 0 0 2 3 3 3 2 2 2 2 2 1 0 0 0 0 0 0 0 0 0 0
13 14 14 13 10 9 9 10 8 6 4 3 2 2 2 2 1 0 0 0 0 0 0 1 2 3 3 3 3 3 3 3 2 1 0 0 0 0 0 0 0 0 0
10 9 9 8 6 4 5 7 8 8 7 5 2 0 0 0 0 0 0 0 0 0 0 0 1 2 3 3 3 3 3 3 2 1 0 0 0 0 0 0 0 0 0
8 7 5 3 2 1 1 2 4 7 8 7 3 1 0 0 0 0 0 0 0 0 0 0 0 1 2 3 3 3 3 2 1 0 0 0 0 0 0 0 0 0 0
5 5 4 2 1 0 0 0 1 4 6 6 4 2 1 0 0 0 0 0 0 0 0 0 0 0 1 2 3 3 2 1 0 0 0 0 0 0 0 0 0 0 0
3 3 2 2 1 0 0 0 1 3 4 4 3 2 1 0 0 0 0 0 0 0 0 0 0 0 0 1 2 2 1 0 0 0 0 0 0 0 0 0 0 0 0
3 2 1 0 0 0 0 0 0 1 3 3 3 2 1 0 0 0 0 0 0 0 0 0 0 0 0 0 1 1 0 0 0 0 0 0 0 0 0 0 0 0 0
3 2 1 0 0 0 0 0 0 0 2 3 3 2 1 0 0 0 0 0 0 0 0 0 0 0 0 0 0 0 0 0 0 0 0 0 0 0 0 0 0 0 0
2 1 0 0 0 0 0 0 0 1 2 3 3 2 1 0 0 0 0 0 0 0 0 0 0 0 0 0 0 0 0 0 0 0 0 0 0 0 0 0 0 0 0
2 1 0 0 0 0 0 0 0 1 2 2 2 2 1 0 0 0 0 0 0 0 0 0 0 0 0 0 0 0 0 0 0 0 0 0 0 0 0 0 0 0 0
3 2 1 0 0 0 0 0 0 0 1 1 1 1 0 0 0 0 0 0 0 0 0 0 0 0 0 0 0 0 0 0 0 0 0 0 0 0 0 0 0 0 0

GEFSGL_con_probscp_192.txt.gz
Probability
29 31 29 25 21 19 19 21 22 22 19 15 11 10 9 10 12 12 10 9 8 6 4 4 6 7 10 12 12 11 11 12 11 8 7 6 5 4 3 2 1 2 2
35 37 36 31 26 23 24 25 26 25 23 19 16 13 12 13 13 11 8 6 5 4 4 4 6 8 10 11 12 11 11 13 12 9 7 7 6 5 5 3 1 1 1
40 41 42 38 33 31 31 32 32 32 29 26 22 19 17 16 13 8 5 4 4 4 4 5 6 7 9 10 11 12 12 12 13 11 9 7 7 6 6 3 1 0 0
41 41 41 40 37 35 36 36 37 37 36 32 28 24 20 16 11 6 5 5 6 6 6 5 6 6 7 8 9 11 12 11 11 11 9 7 6 5 4 2 0 0 0
47 44 42 42 41 40 39 40 41 41 40 37 34 29 21 14 8 6 7 8 8 8 7 5 5 4 5 5 5 7 10 10 10 9 8 6 5 4 3 1 0 0 0
57 54 51 50 50 49 46 45 46 46 44 41 38 33 23 14 8 7 8 11 12 12 9 7 5 4 4 4 3 3 5 7 7 7 7 6 5 4 3 2 1 1 0
61 59 57 57 58 57 54 51 52 52 48 43 40 35 27 17 9 5 7 13 16 16 14 11 7 5 6 7 6 4 4 4 5 6 7 7 6 5 4 4 3 1 0
60 58 57 57 58 58 57 56 55 55 52 47 41 35 28 19 10 3 5 13 19 19 17 14 11 8 9 10 10 10 9 7 4 4 5 6 5 4 4 4 3 1 0
58 56 55 56 56 55 55 55 55 55 52 49 43 34 28 20 10 3 5 13 20 19 17 14 11 10 9 10 11 13 13 10 6 3 2 2 2 1 1 2 1 0 0
56 54 53 55 55 53 51 51 51 51 48 45 41 34 28 21 10 2 4 14 20 19 17 16 12 9 7 6 9 12 13 11 8 3 1 0 1 1 1 0 0 0 0
54 52 52 52 50 49 48 47 47 46 43 40 37 33 28 20 9 2 4 11 17 20 20 19 14 7 3 3 5 9 9 9 8 5 2 1 1 2 2 1 1 0 0
51 52 52 50 47 45 44 43 43 42 38 35 34 32 28 20 12 5 2 5 10 18 22 19 12 5 1 0 2 3 4 5 7 6 4 2 1 2 3 3 2 1 0
47 49 50 50 47 44 41 40 42 41 38 36 36 35 32 27 20 10 4 1 4 11 17 14 7 2 0 0 0 0 1 4 6 5 4 3 2 2 2 3 2 1 0
43 43 44 46 46 43 39 38 38 39 38 38 38 37 36 33 26 17 9 5 4 8 11 8 3 0 0 0 0 1 2 3 5 5 5 4 3 2 1 2 1 0 0
40 38 38 41 41 38 34 31 30 29 28 29 30 31 30 27 21 15 11 8 6 6 7 6 2 0 0 0 1 2 3 4 5 6 6 6 5 3 1 0 0 0 0
36 34 33 35 35 32 28 24 20 15 13 13 15 17 16 13 9 6 5 4 3 3 4 5 4 2 1 0 2 3 3 4 5 6 6 6 5 3 1 0 0 0 0
30 28 27 29 29 27 25 22 17 10 6 4 4 4 4 3 1 0 0 0 0 0 2 5 5 4 2 1 2 2 3 3 4 4 4 4 4 3 1 0 0 0 0
24 23 23 24 25 24 23 21 17 11 7 5 2 0 0 0 0 0 0 0 0 0 1 4 6 6 5 3 2 2 3 4 4 3 3 3 3 2 1 0 0 0 0
20 20 20 21 22 22 21 19 14 10 8 7 4 1 0 0 0 0 0 1 1 0 0 2 4 6 6 5 4 3 3 5 5 4 3 3 3 3 1 0 0 0 0
16 15 15 17 18 18 17 13 10 7 6 6 5 3 1 1 2 1 1 1 1 0 0 1 3 5 6 6 5 4 4 4 6 5 4 4 3 3 2 1 0 0 0
11 11 12 12 12 12 10 8 6 5 4 4 4 3 1 1 3 3 2 1 1 1 2 2 2 3 5 5 5 5 4 4 6 6 6 5 4 3 3 2 1 0 0
9 9 9 9 8 6 5 5 5 5 4 4 4 2 1 1 2 3 4 3 3 3 3 3 3 2 2 2 3 4 3 3 4 5 5 4 4 3 3 2 1 0 0
6 6 6 6 6 4 3 4 5 4 3 3 3 2 1 1 2 3 4 5 4 3 3 3 2 1 0 0 1 2 1 1 1 2 2 2 2 2 1 1 0 0 0
4 4 4 5 5 4 3 3 4 3 3 3 3 2 1 2 3 3 4 4 3 2 2 1 1 1 0 0 0 0 0 0 0 0 0 0 1 1 0 0 0 0 0
4 3 3 4 4 3 3 3 3 3 3 3 4 3 2 2 2 2 3 3 1 1 1 0 0 0 0 0 0 0 0 0 0 0 0 0 0 0 0 0 0 0 0
5 4 3 3 3 3 3 3 3 3 3 4 4 3 2 1 1 1 2 1 0 0 0 0 0 0 0 0 0 0 0 0 0 0 0 0 0 0 0 0 0 0 0

GEFSGL_con_probscp_198.txt.gz
Probability
68 61 56 56 54 47 40 37 39 43 46 47 45 40 33 27 25 27 26 22 18 16 13 12 14 16 15 12 12 13 14 13 11 10 10 10 11 10 7 5 4 2 1
70 66 62 63 63 58 51 47 47 48 47 46 45 43 38 30 28 28 26 21 17 15 12 13 15 15 15 15 14 13 13 12 11 10 10 11 12 11 8 6 5 4 3
70 70 70 70 70 68 62 58 57 55 52 49 47 47 43 37 33 32 27 22 19 17 16 17 17 15 15 15 14 12 11 11 12 11 12 13 13 11 9 7 7 7 5
68 71 73 72 71 70 66 63 63 61 58 54 51 49 47 41 37 35 30 25 23 22 21 20 19 15 13 12 12 11 11 11 12 14 14 15 13 11 9 7 7 7 6
71 71 72 71 69 68 66 63 63 62 59 57 55 52 47 39 32 31 31 28 26 25 23 21 18 13 10 8 8 9 10 11 12 13 14 13 13 10 7 5 5 5 4
76 74 71 69 67 66 64 62 61 60 59 57 56 53 47 34 24 23 26 28 29 28 26 23 18 11 7 6 5 5 7 9 11 12 13 13 13 10 6 3 3 2 1
79 75 71 69 67 65 63 61 59 59 59 57 55 53 46 31 19 17 20 27 30 30 28 26 21 14 9 7 6 5 5 7 9 11 13 13 13 11 7 4 2 1 1
77 73 70 68 67 66 64 61 60 60 59 57 55 53 46 31 18 13 16 23 28 30 28 26 23 16 10 9 9 8 8 8 8 9 11 11 11 11 8 4 3 3 2
74 72 70 70 68 67 66 63 61 60 58 56 55 54 48 33 17 9 12 19 25 29 28 25 21 15 9 8 10 11 10 10 8 7 7 7 6 6 6 4 4 4 4
70 70 69 69 67 65 64 62 59 58 56 55 54 54 49 36 18 7 9 16 23 27 28 25 19 11 5 4 8 10 10 10 9 8 7 6 5 5 5 5 5 6 5
63 63 62 62 61 60 60 60 58 57 55 52 50 50 48 37 20 6 6 12 19 24 27 26 18 8 2 1 3 7 8 8 8 10 10 10 9 8 8 8 8 8 8
54 54 56 57 55 56 58 58 58 57 53 49 47 46 46 39 24 9 4 6 12 19 24 22 13 5 0 0 1 4 5 6 8 10 13 13 12 11 10 10 10 10 9
49 50 52 55 54 53 53 53 52 51 48 45 43 42 43 41 31 16 5 2 5 11 14 11 5 1 0 0 1 2 4 6 9 11 13 12 11 11 11 10 10 9 7
52 52 52 53 51 48 45 43 41 40 39 40 40 38 39 39 33 22 11 6 4 4 5 4 2 1 1 1 2 3 5 7 10 12 11 10 9 10 11 11 9 5 3
55 53 50 45 42 39 34 29 26 25 26 30 32 32 32 32 29 22 16 12 7 3 4 6 6 5 5 6 6 6 7 9 10 11 9 9 9 9 10 10 7 3 1
52 49 43 37 32 30 27 21 14 12 13 15 17 19 20 19 17 14 11 9 6 3 5 10 12 11 10 10 10 9 9 9 10 9 8 8 8 8 9 9 6 2 1
43 39 34 31 28 26 25 21 14 9 7 6 6 7 7 6 5 4 3 2 1 2 6 12 14 13 12 12 11 8 7 8 8 7 7 6 6 6 7 7 6 3 2
32 27 26 27 27 26 26 23 19 15 11 7 3 1 1 0 0 0 0 1 1 4 8 11 12 11 10 10 9 8 6 6 6 6 5 5 5 5 6 6 6 5 3
24 21 20 23 24 25 24 22 21 19 15 11 6 2 0 0 0 0 1 2 3 6 9 9 9 8 7 7 7 7 6 5 4 4 4 4 5 5 5 6 6 5 3
22 18 17 20 22 22 22 20 19 17 15 11 7 4 1 1 1 1 1 2 4 6 8 7 5 5 6 6 6 6 6 5 4 3 3 3 4 4 4 4 3 3 3
18 16 15 19 20 20 19 17 15 13 12 11 9 5 3 2 3 3 2 3 3 4 5 4 4 3 4 5 6 6 6 5 4 3 3 3 3 3 3 3 1 1 2
12 12 14 16 16 15 15 14 12 12 11 10 9 5 3 3 4 5 4 2 2 2 4 4 4 4 4 4 5 6 6 6 5 4 3 3 3 3 3 2 1 1 2
8 9 11 12 11 9 9 10 10 11 10 9 8 6 4 4 5 5 4 2 1 3 5 6 6 6 6 5 5 5 6 6 6 4 3 3 3 2 2 1 0 0 1
7 8 8 8 7 6 6 7 8 8 7 7 7 5 4 5 6 5 4 3 3 5 7 7 7 7 7 6 5 4 4 5 4 3 2 2 1 1 1 0 0 0 0
6 6 6 5 5 6 5 5 5 4 4 5 5 4 4 5 5 5 5 6 7 7 8 8 8 7 7 5 3 2 1 2 1 1 1 1 0 0 0 0 0 0 0
4 4 4 3 4 6 5 4 4 3 4 4 4 4 3 4 4 5 6 7 9 9 8 8 7 7 6 5 2 0 0 0 0 0 0 0 0 0 0 0 0 0 0

GEFSGL_con_probscp_204.txt.gz
Probability
43 40 33 28 26 25 24 21 17 14 15 16 16 14 12 13 12 9 6 4 3 2 2 2 2 2 1 0 0 1 1 1 1 1 1 2 2 1 1 1 0 0 0
43 40 35 31 28 25 24 22 18 15 16 18 19 17 15 14 12 10 7 6 4 2 1 1 1 1 1 1 1 2 2 2 2 2 2 1 1 0 0 0 0 0 0
44 43 39 34 30 27 25 23 21 18 17 18 19 18 16 15 13 11 10 8 5 2 0 0 0 1 2 3 3 3 4 4 4 3 2 1 0 0 0 0 0 0 0
51 49 43 37 32 29 26 26 25 23 19 17 16 16 16 15 13 12 12 11 7 3 1 1 1 2 3 3 3 4 4 5 4 2 1 0 0 0 0 0 0 0 0
57 53 46 39 33 28 27 28 29 29 25 20 17 17 16 15 13 13 15 14 10 5 3 3 3 3 4 3 3 3 4 4 4 2 1 1 1 1 1 0 0 0 0
55 52 46 41 34 29 29 30 31 32 30 24 20 18 17 15 14 15 17 16 12 8 6 6 5 6 5 3 2 3 3 3 3 3 2 2 2 2 2 1 0 0 0
49 48 46 43 38 35 35 35 34 33 32 30 25 21 19 16 15 15 16 16 14 10 9 8 8 8 7 4 3 3 3 3 3 2 3 3 3 3 3 2 1 1 0
43 45 45 44 41 39 39 39 37 36 35 33 30 26 22 19 16 13 13 15 15 12 10 11 10 10 8 6 4 3 4 3 3 3 3 2 3 3 3 3 3 2 1
40 41 43 43 41 39 38 39 40 39 37 34 32 30 26 21 15 10 9 13 15 13 12 12 11 10 8 6 4 4 4 4 3 3 2 2 2 2 2 3 3 3 3
34 35 38 39 39 38 38 39 41 41 40 36 32 30 26 20 12 6 7 12 14 13 12 12 10 7 5 4 4 5 5 4 3 2 1 1 1 1 1 3 3 3 3
27 29 32 33 33 34 36 37 37 38 39 36 32 27 24 19 11 5 6 10 11 11 11 11 9 5 3 2 2 4 4 3 3 3 2 1 1 1 1 2 3 3 3
20 24 27 27 26 26 28 29 28 29 31 31 29 26 23 20 15 8 5 5 7 9 10 9 7 4 1 0 1 1 1 1 2 3 3 2 1 1 1 2 2 3 3
13 16 19 20 20 20 20 19 17 17 20 22 23 23 22 20 18 13 7 4 4 6 8 6 5 3 1 0 0 0 0 0 1 2 3 2 1 1 2 2 2 3 4
8 10 12 14 16 16 15 12 10 9 10 12 15 18 19 19 18 17 12 6 3 3 4 4 3 2 1 0 0 0 0 0 0 1 2 2 2 1 1 1 2 3 4
5 6 8 10 12 13 12 9 6 3 3 5 7 10 12 13 13 12 11 7 3 2 2 1 1 1 0 0 0 0 0 0 0 0 1 2 2 1 0 0 1 2 3
2 3 4 6 9 11 11 8 5 2 1 1 2 3 5 6 5 4 4 4 2 1 2 1 1 1 0 0 0 0 0 0 0 0 1 1 1 1 0 0 0 1 2
2 1 2 3 5 8 10 10 6 3 1 0 0 0 1 2 1 0 0 0 0 0 1 2 2 2 1 0 0 0 0 0 0 0 0 1 1 1 0 0 0 0 1
1 1 0 1 4 6 9 9 7 5 4 2 0 0 0 0 0 0 0 0 0 0 1 2 3 3 2 1 1 1 1 0 0 0 0 0 1 1 0 0 0 0 0
1 0 0 1 4 6 7 7 6 6 6 5 2 0 0 0 0 0 0 0 0 0 0 1 1 2 3 3 2 2 2 1 1 1 1 1 1 0 0 0 0 0 0
1 0 0 1 4 5 6 7 7 6 6 6 4 1 0 0 0 0 0 0 0 0 0 0 0 1 2 3 3 3 3 3 2 2 2 2 2 1 1 1 1 1 0
2 1 0 1 3 4 5 6 6 5 5 5 4 3 1 0 1 1 0 0 0 0 0 0 0 0 1 3 3 3 3 3 2 3 3 3 3 2 2 2 2 1 1
3 2 1 1 2 3 4 4 4 4 3 3 4 3 1 1 2 2 0 0 0 0 0 0 0 0 1 2 3 3 2 1 1 1 2 2 2 3 3 3 3 2 1
3 2 1 1 2 3 3 3 3 3 3 3 3 3 2 3 4 2 0 0 0 0 0 0 0 0 1 2 2 2 1 0 0 0 1 1 1 2 2 2 2 1 1
3 2 1 2 3 4 3 3 3 3 3 3 3 3 3 5 4 2 1 0 0 0 0 0 0 0 0 1 1 1 0 0 0 0 0 0 0 1 1 1 1 1 0
3 3 3 3 5 5 4 3 3 3 3 3 3 3 4 4 3 2 1 0 0 0 0 0 0 0 0 0 0 0 0 0 0 0 0 0 0 0 0 0 0 0 0
4 5 5 5 6 6 5 4 3 3 3 3 3 3 4 3 1 1 0 0 0 0 0 0 0 0 0 0 0 0 0 0 0 0 0 0 0 0 0 0 0 0 0

GEFSGL_con_probscp_210.txt.gz
Probability
33 30 27 26 28 27 23 18 17 17 17 16 16 15 12 10 8 6 5 6 7 7 6 5 4 4 3 3 2 2 1 0 0 0 0 1 0 0 0 0 0 0 0
34 31 28 28 31 31 27 23 21 19 18 16 16 15 13 12 10 9 9 10 11 10 9 8 7 5 4 3 3 3 3 2 1 0 1 1 1 0 0 0 0 0 0
35 33 31 32 35 36 33 28 23 20 18 17 15 15 16 16 15 16 16 17 16 14 13 12 10 7 5 3 3 4 4 4 3 1 1 2 2 1 1 1 0 0 0
35 34 33 34 37 38 36 31 25 20 17 16 14 15 18 19 18 20 21 21 19 18 16 14 12 9 6 4 3 4 4 4 3 1 1 2 2 1 1 2 1 0 0
34 33 32 32 35 37 36 32 26 21 18 15 13 14 17 17 17 18 20 20 20 19 18 15 13 11 8 5 5 5 6 4 3 2 2 3 3 1 1 1 1 0 0
30 28 26 25 27 31 32 30 28 25 21 16 14 13 14 14 14 14 15 18 19 19 19 18 16 13 9 7 6 5 5 4 4 4 3 3 3 2 1 1 0 0 0
25 23 19 18 20 22 26 29 30 27 22 19 16 15 13 12 11 11 12 15 18 19 19 18 17 15 12 11 9 6 5 4 4 5 5 4 3 3 2 1 0 0 0
21 19 16 15 17 20 23 26 28 25 23 22 20 18 16 13 11 10 10 13 17 18 18 16 15 16 16 16 15 11 9 7 4 3 4 4 3 2 2 1 0 0 0
19 17 15 14 16 20 21 21 22 22 22 22 21 20 20 17 13 9 8 12 16 17 16 13 13 16 16 16 16 16 14 10 5 2 2 1 1 1 1 0 1 1 0
17 17 14 13 14 17 19 18 19 20 20 20 19 19 22 20 15 8 7 12 16 17 16 14 13 12 11 10 12 15 14 11 7 5 2 1 1 1 1 1 2 2 1
15 16 14 13 14 16 17 17 19 21 21 20 19 20 21 19 14 7 5 9 15 16 16 15 13 9 5 4 7 11 11 8 8 8 5 3 2 2 2 2 3 3 3
13 13 13 12 14 16 16 17 19 22 22 21 21 21 21 18 14 7 2 4 8 12 12 12 10 6 3 1 3 5 5 4 6 8 6 4 3 3 3 3 3 3 2
10 9 9 10 11 12 14 16 19 22 22 21 20 19 18 17 14 9 4 2 3 5 7 6 5 4 3 2 2 2 2 3 6 7 6 4 2 2 3 3 3 2 1
6 6 6 6 7 9 11 13 16 19 19 17 15 14 13 12 11 10 7 4 2 2 3 3 3 3 3 3 3 2 2 3 5 6 5 4 2 2 3 3 2 1 1
3 4 4 3 4 5 6 7 9 11 11 10 8 8 7 6 6 6 6 5 3 2 2 3 3 4 3 3 3 3 3 3 4 5 4 3 3 3 3 3 2 1 1
1 1 1 1 2 3 2 2 3 4 4 3 3 3 2 1 1 1 2 2 1 1 1 1 3 4 4 3 3 2 2 2 3 3 3 3 3 3 3 3 2 0 0
0 0 0 0 1 1 1 0 1 2 2 1 0 0 0 0 0 0 0 0 0 0 0 0 2 4 5 4 2 1 1 1 1 2 3 3 3 3 3 3 2 1 1
0 0 0 0 0 1 0 0 1 2 3 2 1 0 0 0 0 0 0 0 0 0 0 0 0 2 4 4 3 1 0 0 0 1 2 3 3 3 3 3 3 3 2
0 0 0 0 1 1 1 1 1 3 4 3 2 1 0 0 0 0 0 0 0 0 0 0 0 1 2 4 2 1 0 0 0 0 0 1 1 2 3 3 3 3 3
0 0 0 0 1 2 3 2 2 3 4 4 3 2 1 0 0 0 0 0 1 1 1 0 0 0 1 2 1 0 0 0 0 1 1 1 1 1 3 3 3 3 3
0 0 0 0 1 2 2 2 1 1 3 4 3 2 1 0 1 1 0 0 1 2 1 1 0 0 0 1 0 0 0 0 0 1 2 2 2 2 3 3 3 3 3
0 0 0 0 0 1 1 1 0 0 2 4 4 2 1 1 2 2 1 0 1 3 3 2 1 0 0 0 0 0 0 0 0 1 2 3 3 3 3 3 3 3 3
0 0 0 0 0 0 0 0 0 0 2 3 3 3 2 2 3 3 1 1 2 3 3 3 1 0 0 0 0 0 0 0 1 1 2 3 3 3 3 3 3 3 3
0 0 0 0 0 0 0 0 0 0 1 3 3 3 3 3 3 3 3 2 2 1 2 2 2 1 0 0 0 0 0 0 1 2 2 3 3 3 3 3 3 3 2
0 0 0 0 0 0 0 0 0 0 1 3 3 3 3 3 3 3 3 3 1 0 0 1 1 1 0 0 0 0 0 0 1 1 2 2 2 2 1 1 2 1 1
0 0 0 0 0 0 0 0 0 1 2 3 3 3 3 3 3 3 3 2 1 0 0 0 1 0 0 0 0 0 0 0 0 0 1 1 1 1 0 0 1 0 0

GEFSGL_con_probscp_216.txt.gz
Probability
27 28 28 26 25 29 33 35 37 38 37 31 26 24 25 28 29 28 23 20 18 15 14 15 15 13 12 13 12 11 11 11 8 7 10 12 11 8 7 9 9 7 7
35 37 38 36 34 37 39 40 41 40 37 33 29 28 28 29 30 29 26 23 20 17 16 16 16 15 16 16 15 12 12 12 10 9 11 12 11 9 9 8 7 7 8
48 49 51 51 49 48 47 45 46 43 40 37 34 35 35 33 32 30 28 27 24 21 19 18 18 19 21 21 19 16 15 16 15 13 13 12 11 11 11 9 8 8 8
55 56 58 59 59 55 50 48 46 44 41 41 39 39 40 38 33 31 30 29 28 25 22 20 20 22 23 23 21 20 19 20 20 18 17 15 15 14 13 10 9 9 9
56 56 57 58 60 59 54 50 47 42 41 43 44 42 40 36 31 28 28 28 29 26 23 21 21 21 21 20 19 20 22 23 23 22 21 21 21 19 14 11 10 11 12
52 52 53 54 56 55 53 52 50 46 43 45 45 43 39 32 23 19 21 25 28 26 22 21 20 19 19 18 16 15 17 20 22 24 24 25 25 23 19 15 15 15 15
46 46 47 50 51 48 46 47 48 46 44 43 43 42 41 31 16 9 12 20 25 25 22 20 20 20 20 20 18 14 14 16 20 24 26 27 28 28 25 23 22 20 19
44 44 44 44 44 42 40 41 41 40 39 38 38 41 41 30 13 5 8 15 22 24 24 23 24 24 23 24 23 21 21 20 19 21 23 25 28 29 28 28 27 25 22
42 42 40 37 36 35 34 35 37 37 35 33 36 39 40 31 15 5 7 16 22 25 27 27 27 26 24 24 27 30 30 28 23 19 18 19 21 22 23 26 28 27 24
37 37 33 29 28 28 29 30 32 34 32 31 33 36 37 32 19 7 8 19 26 29 30 29 25 21 18 18 25 33 35 33 29 24 20 18 19 18 17 21 26 27 25
33 31 28 24 22 22 25 26 26 28 29 29 30 31 32 29 20 8 8 18 25 28 30 28 22 15 10 9 17 26 30 30 32 31 28 23 22 20 17 19 23 25 26
31 28 24 19 16 16 18 19 20 23 26 27 26 25 26 25 18 9 5 10 17 23 27 26 19 10 4 2 6 13 14 18 27 32 30 26 23 22 21 20 21 22 24
25 22 19 17 15 14 15 16 17 20 21 22 22 22 23 23 18 11 6 4 7 15 21 19 12 5 1 1 2 3 4 10 22 29 28 25 23 24 24 23 21 19 20
19 18 18 17 16 15 15 15 16 17 17 17 20 21 22 23 20 15 11 7 5 9 14 13 8 5 4 4 5 5 5 10 18 25 27 26 26 26 25 23 20 17 16
18 17 16 15 15 15 14 12 11 11 10 12 16 18 19 19 17 13 11 8 6 8 11 12 11 10 10 11 12 11 10 12 15 20 24 25 26 26 24 21 19 17 15
16 15 13 12 13 12 11 7 4 3 3 5 8 10 11 11 9 7 5 5 5 6 8 11 13 14 14 15 15 14 13 15 17 18 20 22 23 24 22 21 19 17 15
12 11 10 9 10 9 8 5 1 0 0 1 2 3 3 3 2 1 1 1 2 3 5 8 10 12 12 13 14 14 15 17 19 17 18 19 19 20 19 18 18 16 15
8 7 7 7 6 6 5 2 0 0 1 1 0 0 0 0 0 0 0 0 0 1 3 6 8 9 9 11 13 13 14 16 17 16 16 16 16 16 16 16 16 15 13
4 3 4 4 3 2 1 0 0 1 2 1 0 0 0 0 0 0 0 1 2 1 3 6 8 8 9 10 11 12 13 14 14 14 14 13 12 13 13 13 13 12 11
1 1 1 1 1 0 0 0 0 1 2 1 0 0 0 1 1 1 1 2 3 2 3 6 9 9 9 10 11 11 12 13 13 13 12 11 10 9 9 9 10 10 10
0 0 0 0 0 0 0 0 0 1 1 0 0 0 1 2 3 3 3 3 3 3 4 6 9 10 10 10 10 11 11 12 12 11 11 10 9 8 7 7 8 9 9
1 0 0 0 0 0 1 0 0 0 0 0 0 0 1 2 4 4 4 3 3 4 5 6 8 9 9 9 9 9 9 9 8 8 9 9 8 7 7 7 7 8 8
1 0 0 0 0 0 0 0 0 0 0 0 0 0 1 2 3 4 3 3 3 3 4 6 7 7 7 7 8 8 8 7 6 6 7 8 7 6 6 7 8 7 6
1 0 0 0 0 0 0 0 0 0 0 0 0 0 0 1 3 3 3 3 3 3 4 6 6 6 5 6 7 8 7 6 5 5 5 6 7 6 5 6 7 5 3
0 0 0 0 0 0 0 0 0 0 0 0 0 0 0 1 2 3 3 3 3 3 4 6 6 6 5 4 5 6 4 3 3 3 4 6 6 5 4 4 6 5 2
0 0 0 0 0 0 0 0 0 0 0 0 0 0 0 1 2 3 3 3 3 3 4 6 6 6 5 4 4 4 2 1 1 1 3 5 6 5 4 4 6 5 2

GEFSGL_con_probscp_222.txt.gz
Probability
65 62 61 61 58 52 48 47 45 43 41 41 42 41 39 40 40 36 31 31 34 34 30 27 25 23 22 22 20 17 13 12 11 9 10 14 16 14 9 7 7 7 6
68 67 67 68 65 59 56 54 52 50 49 47 44 40 38 42 44 40 34 32 34 34 32 28 25 22 22 22 20 19 16 15 15 14 13 15 17 17 13 8 6 4 5
69 70 72 73 69 64 61 60 58 57 56 53 46 41 41 44 47 44 39 36 36 36 34 31 27 24 23 23 21 20 18 18 20 19 17 19 20 19 15 9 4 3 3
67 69 70 71 68 64 61 61 60 58 56 53 47 43 43 44 45 45 44 42 40 39 37 35 31 27 26 25 24 23 22 22 23 23 22 24 24 22 17 10 5 3 3
67 67 66 66 66 65 62 62 60 56 53 50 46 44 44 41 37 40 42 42 42 42 40 37 33 29 27 25 23 24 25 27 29 29 29 28 27 26 22 15 10 6 5
70 66 63 63 64 64 63 61 58 55 52 49 47 47 46 39 28 27 32 36 39 40 40 37 31 26 24 22 19 18 21 25 28 32 33 31 31 31 28 22 18 13 11
68 64 60 60 60 60 58 57 57 55 53 51 49 49 47 37 23 16 21 30 34 37 39 39 31 24 24 25 22 18 18 20 23 27 30 31 34 35 33 28 24 21 19
59 57 54 53 53 53 54 54 54 53 53 52 50 49 45 35 19 10 14 24 32 35 37 39 36 30 27 29 27 24 23 21 18 19 21 26 31 34 34 31 27 25 23
51 50 48 46 46 47 50 52 51 49 49 49 47 46 42 32 17 8 10 23 34 36 34 34 33 31 26 25 26 29 29 25 19 15 16 19 21 23 25 26 27 25 22
49 49 48 45 43 44 47 49 47 45 44 42 41 42 40 31 18 7 9 24 35 36 32 27 23 22 18 15 20 28 30 27 23 19 16 15 15 16 18 22 26 25 23
48 49 49 46 43 43 45 45 43 41 39 36 35 37 37 31 19 8 7 17 27 31 30 26 21 14 9 6 11 21 24 23 23 22 20 18 19 21 22 23 25 26 24
44 46 46 44 42 41 41 40 38 36 34 32 32 31 31 28 20 10 4 7 15 22 25 23 18 10 3 1 4 10 12 13 16 19 20 22 24 25 25 24 25 25 24
42 43 42 40 38 36 32 30 30 30 28 28 27 25 24 25 22 14 6 3 6 12 16 15 10 5 2 1 3 5 6 10 14 15 18 23 24 22 22 22 23 23 22
39 38 34 32 30 28 23 21 22 22 22 22 22 20 20 21 20 16 11 7 6 8 10 9 6 4 5 7 8 7 9 14 16 15 17 21 22 19 20 22 22 21 19
31 28 23 21 21 21 18 16 15 14 13 14 14 15 15 15 14 12 11 10 9 9 9 9 8 8 10 13 13 11 12 15 16 15 18 20 20 19 21 22 22 21 20
22 20 15 13 15 17 16 14 9 6 6 5 6 8 8 8 7 5 5 6 7 7 9 11 13 13 13 14 13 12 12 13 13 14 17 18 18 18 20 21 21 21 22
17 14 12 11 12 13 14 13 9 5 3 2 1 2 3 3 2 1 1 1 2 3 8 13 15 14 13 13 12 11 11 10 11 13 15 15 15 16 18 18 18 18 19
12 11 10 10 9 11 11 11 10 7 4 2 1 0 1 1 0 0 0 0 1 2 7 12 14 13 12 12 12 11 11 12 12 13 13 13 13 14 15 16 16 14 13
11 11 9 8 8 8 8 8 8 7 6 4 2 1 0 0 0 0 0 1 2 4 7 9 10 10 10 10 11 11 12 12 13 13 12 12 12 13 14 15 14 12 10
10 8 7 6 6 6 6 6 6 5 4 4 3 1 0 0 0 0 0 1 3 5 7 8 8 7 8 9 10 10 10 11 11 11 10 10 10 11 12 12 11 10 8
6 5 4 4 5 6 6 5 4 4 3 2 1 1 0 0 0 0 0 0 2 4 6 7 7 6 7 8 9 9 10 10 10 9 8 8 8 9 10 10 9 7 6
3 3 2 3 4 5 5 4 4 5 3 2 0 0 0 0 1 1 0 0 0 1 3 5 5 6 6 6 7 9 11 10 8 8 8 8 8 8 8 7 7 6 4
2 1 1 1 2 3 4 4 4 4 3 2 0 0 0 0 1 1 0 0 0 1 2 3 4 4 4 4 5 7 10 10 8 7 8 8 8 8 7 6 6 6 4
1 0 0 0 1 2 3 3 2 2 2 1 0 0 0 0 1 1 0 0 0 2 3 3 3 3 3 3 4 5 6 6 6 7 7 7 8 8 6 5 6 5 4
0 0 0 0 1 2 3 2 1 0 0 0 0 0 0 0 0 0 0 0 1 2 3 3 3 3 3 3 3 3 3 3 4 4 5 6 6 6 5 4 5 4 4
0 0 0 0 0 1 2 1 0 0 0 0 0 0 0 0 0 0 0 0 1 2 3 3 3 3 3 3 3 3 3 2 2 3 4 6 6 5 4 4 4 4 3

GEFSGL_con_probscp_228.txt.gz
Probability
43 41 37 32 29 27 24 21 19 16 13 12 12 12 13 13 12 13 11 9 10 10 9 7 5 5 7 7 6 6 7 7 5 2 1 0 0 1 1 0 0 0 0
43 42 39 36 33 30 26 23 21 17 14 13 13 14 14 14 15 15 13 11 9 8 7 5 4 4 6 8 8 7 7 7 6 4 3 2 1 2 2 1 0 0 0
45 44 42 41 39 35 30 28 27 22 18 16 17 17 17 16 18 18 17 15 12 10 8 6 5 5 6 9 9 8 8 7 6 6 5 5 4 3 3 2 2 1 1
46 45 43 43 41 37 34 33 33 29 24 21 21 21 21 19 18 18 18 19 17 15 13 11 10 9 8 9 10 10 10 8 7 7 6 6 5 4 4 5 5 4 3
45 43 42 40 39 38 36 36 35 32 28 25 24 25 24 21 17 15 17 19 18 17 16 15 13 11 9 8 9 10 11 11 10 8 7 7 6 5 6 6 6 6 5
41 40 38 36 35 36 35 34 32 30 29 28 28 27 25 21 15 12 14 17 17 16 14 14 13 11 9 7 6 7 9 10 11 11 9 7 6 7 9 8 7 6 5
36 35 33 32 32 33 31 29 29 28 28 28 27 25 23 20 14 9 9 13 15 14 13 13 12 10 8 6 4 4 4 5 7 10 9 7 7 9 12 12 10 8 6
33 32 30 29 30 30 29 26 25 25 25 25 24 24 23 21 14 7 7 12 15 14 13 13 13 11 8 7 6 4 2 2 3 5 6 5 5 8 11 12 11 8 6
30 30 30 29 28 28 27 25 22 22 22 22 23 22 21 19 14 7 7 11 15 15 14 13 13 11 7 5 5 5 4 3 1 2 2 2 2 3 6 8 8 7 6
29 29 31 30 29 26 25 23 21 20 19 19 20 19 17 16 11 6 6 11 14 13 12 11 10 8 5 3 4 6 7 5 3 2 1 1 1 1 1 3 6 7 6
27 27 28 28 27 24 21 20 20 20 17 13 14 15 14 12 9 5 4 8 11 11 10 9 8 5 3 1 3 6 7 6 5 4 3 2 2 2 1 2 4 6 7
25 24 23 23 22 20 17 16 16 16 13 9 9 10 10 9 8 4 2 3 6 8 8 8 7 5 1 0 1 3 3 4 5 6 5 5 4 4 3 3 3 5 6
23 21 19 18 17 15 14 14 13 12 9 7 6 6 7 6 6 5 2 1 3 5 5 5 4 3 1 0 0 0 0 2 6 8 9 8 6 6 6 5 5 5 6
22 20 17 16 14 13 12 11 11 9 7 6 5 6 7 7 6 6 4 3 3 3 4 4 3 2 2 1 1 0 1 3 7 9 9 8 7 6 6 6 7 7 7
19 16 14 12 11 11 9 8 7 6 5 5 5 6 7 6 6 6 5 5 5 5 5 5 5 4 4 3 2 2 3 4 6 7 7 6 6 6 6 7 8 9 9
14 12 9 7 7 6 5 4 4 3 2 2 3 3 3 3 3 3 4 4 5 6 6 6 6 6 6 5 5 5 5 5 5 6 6 6 6 7 7 7 7 9 9
11 9 6 4 3 3 2 2 3 2 0 0 1 1 1 0 1 1 1 1 2 3 5 5 6 6 6 6 6 6 5 5 5 6 6 7 9 9 8 7 7 7 8
9 7 4 2 1 1 0 1 2 1 0 0 0 0 0 0 0 0 0 0 1 1 2 3 4 6 6 5 5 4 3 4 4 5 5 7 10 11 9 8 7 7 7
6 5 3 1 0 0 0 0 1 1 0 0 0 0 0 0 0 0 0 0 1 0 0 1 3 5 5 5 4 3 1 1 1 2 3 5 7 8 8 7 7 6 6
3 2 1 0 0 0 0 0 0 0 0 0 0 0 0 0 0 0 0 0 0 0 0 0 1 3 4 4 4 3 1 1 1 1 2 4 4 4 4 5 5 5 5
2 1 0 0 0 0 0 0 0 0 0 0 0 0 0 0 0 0 0 0 0 0 0 0 0 1 2 3 3 3 3 2 2 2 3 4 3 3 3 3 4 3 3
1 0 0 0 0 0 0 0 0 0 0 0 0 0 0 0 0 0 0 0 0 0 0 0 0 0 1 3 3 3 3 3 3 3 4 4 3 3 3 3 3 3 3
2 1 0 0 0 0 0 0 0 0 0 0 0 0 0 0 0 0 0 0 0 0 0 0 0 0 1 2 3 3 3 3 3 3 4 3 3 3 3 3 3 3 3
2 1 0 0 0 0 0 0 0 0 0 0 0 0 0 0 0 0 0 0 0 0 0 0 0 0 0 1 1 2 3 3 3 3 3 3 3 3 3 3 3 3 3
2 1 0 0 0 0 0 0 0 0 0 0 0 0 0 0 0 0 0 0 0 0 0 0 0 0 0 0 0 1 2 2 2 2 3 3 3 3 3 3 3 3 3
2 1 0 0 0 0 0 0 0 0 0 0 0 0 0 0 0 0 0 0 0 0 0 0 0 0 0 0 0 0 1 1 1 1 2 3 3 3 3 3 3 3 3

GEFSGL_con_probscp_234.txt.gz
Probability
9 11 14 15 13 12 11 10 9 9 10 11 12 11 9 7 6 5 6 6 5 5 5 6 8 9 11 10 8 6 4 1 0 0 1 1 1 0 0 0 0 0 0
14 15 17 17 16 15 14 14 14 14 13 13 13 13 12 10 9 9 8 7 7 7 7 7 8 9 11 11 9 8 6 4 2 1 1 1 1 1 1 1 0 0 0
22 23 24 23 21 20 19 19 21 20 18 15 13 13 13 13 13 13 13 10 9 9 8 8 10 11 13 13 12 11 10 9 7 6 4 3 3 3 3 3 1 1 1
30 30 30 29 27 25 23 22 24 24 20 17 14 13 13 13 13 15 16 14 11 10 10 10 11 13 14 14 13 13 13 13 11 9 7 6 5 5 6 5 4 3 3
31 31 32 32 31 29 26 24 25 25 23 21 18 15 15 13 12 14 16 14 13 13 13 12 12 12 13 13 13 13 12 12 11 10 8 6 6 6 7 7 5 5 5
27 27 29 31 30 29 27 26 26 26 25 23 21 19 17 15 12 11 12 12 12 13 13 12 11 10 9 10 9 8 8 9 9 9 8 7 6 6 7 7 6 5 5
24 24 25 26 27 26 26 28 27 25 23 22 22 21 20 16 10 7 6 7 8 8 8 9 9 8 7 7 6 5 6 7 8 9 9 9 8 7 6 7 7 7 6
21 20 20 22 23 23 24 25 25 23 21 20 19 20 19 14 7 3 2 2 3 4 4 6 7 7 7 7 7 7 7 7 6 6 8 8 7 6 6 7 9 9 7
20 19 18 20 21 22 23 22 22 22 20 17 16 17 15 10 4 0 0 1 1 2 3 5 6 7 6 6 8 9 9 8 5 4 4 4 3 2 3 6 8 9 8
20 20 20 20 21 22 22 21 21 20 16 15 14 12 10 6 1 0 1 2 2 2 4 6 6 6 5 4 6 9 9 9 7 6 4 2 1 1 2 4 6 7 9
18 20 21 21 21 21 21 21 20 17 14 14 12 9 7 4 1 0 1 2 3 3 4 6 6 5 2 2 4 8 9 8 9 10 8 4 2 2 2 3 5 6 7
15 17 19 20 20 20 20 19 18 16 15 15 13 9 6 3 2 1 0 1 2 3 4 4 4 3 1 0 2 5 5 6 9 12 12 9 6 6 5 5 5 5 6
12 13 15 17 18 19 19 19 17 16 16 16 14 10 6 4 2 1 0 0 0 1 2 2 1 1 0 0 1 2 2 4 8 11 11 11 10 10 9 7 6 6 6
12 10 10 13 16 17 17 16 16 15 15 15 13 10 6 4 3 1 0 0 0 0 1 1 0 1 1 1 2 2 2 3 5 8 9 9 10 10 9 9 7 8 9
12 10 8 10 13 13 12 11 10 10 10 10 10 7 6 5 3 1 1 0 0 0 0 0 0 1 2 3 3 4 4 3 4 6 7 8 8 8 8 9 9 10 11
12 10 8 8 9 9 7 5 4 4 4 4 4 4 4 4 2 1 0 0 0 0 1 1 1 1 2 3 4 4 4 3 4 5 6 7 7 8 9 9 9 10 11
11 9 6 5 5 4 4 3 1 0 1 1 1 1 2 2 1 0 0 0 0 0 1 2 1 1 2 4 4 3 3 3 3 4 5 6 6 7 9 9 9 8 8
9 6 4 3 2 2 2 2 1 0 0 0 0 0 1 1 0 0 0 0 0 0 1 1 1 1 2 3 3 3 4 3 3 3 3 4 5 6 7 8 7 6 5
6 4 2 1 1 1 1 1 0 0 0 0 0 0 0 0 0 0 0 0 0 0 0 0 0 0 1 2 2 3 4 4 3 3 3 3 4 5 6 5 5 4 4
4 3 2 1 1 1 0 0 0 0 0 0 0 0 0 0 0 0 0 0 0 0 0 0 0 0 0 1 1 1 3 4 3 3 3 3 3 4 4 4 3 3 3
3 3 1 0 0 0 0 0 0 0 0 0 0 0 0 0 0 0 0 0 0 0 0 0 0 0 0 0 0 0 1 2 2 3 3 3 3 3 3 2 1 1 2
2 2 1 0 0 0 0 0 0 0 0 0 0 0 0 0 0 0 0 0 0 0 0 0 0 0 0 0 0 0 0 0 1 2 3 3 3 3 2 1 1 1 2
1 1 0 0 0 0 0 0 0 0 0 0 0 0 0 0 0 0 0 0 0 0 0 0 0 0 0 0 0 0 0 0 0 1 2 3 3 3 3 2 2 1 1
0 0 1 1 1 0 0 0 0 0 0 0 0 0 0 0 0 0 0 0 0 0 0 0 0 0 0 0 0 0 0 0 0 0 1 3 3 3 3 3 3 3 2
0 0 1 2 2 1 0 0 0 0 0 0 0 0 0 0 0 0 0 0 0 0 0 0 0 0 0 0 0 0 0 0 0 0 1 2 3 3 3 3 3 3 3
0 0 1 3 2 1 0 0 0 0 0 0 0 0 0 0 0 0 0 0 0 0 0 0 0 0 0 0 0 0 0 0 0 0 0 1 3 3 3 3 3 3 3

GEFSGL_con_probscp_240.txt.gz
Probability
18 17 17 16 16 15 17 18 18 16 18 22 24 24 23 23 24 23 19 16 16 17 18 17 18 20 20 18 15 14 16 17 16 14 14 17 18 17 16 16 14 14 13
17 19 20 21 21 20 21 23 23 22 22 24 28 28 27 27 29 28 21 17 17 19 21 22 21 22 22 21 19 17 18 19 19 18 17 19 22 23 21 19 16 14 15
22 23 26 30 31 28 27 28 30 30 28 28 32 34 32 32 33 32 27 23 23 23 26 27 27 26 26 26 24 23 22 23 24 23 22 23 26 28 26 21 18 18 19
33 32 33 36 37 35 32 33 36 36 34 33 35 37 35 32 33 34 33 29 28 29 30 30 30 30 28 26 26 26 26 26 27 26 25 26 28 29 27 21 18 20 22
43 43 41 39 38 37 36 37 39 39 37 38 37 35 33 29 28 31 33 31 30 32 33 32 31 28 24 20 19 21 25 27 27 26 26 27 29 29 27 23 19 19 20
49 48 47 43 40 38 36 37 38 37 37 38 38 35 31 26 21 22 25 28 30 32 33 32 29 24 19 15 11 11 16 20 22 25 27 28 29 28 26 24 22 20 19
49 49 48 45 41 38 36 35 36 36 36 36 36 34 31 25 16 12 15 22 28 30 31 31 27 21 18 16 12 8 9 10 14 20 25 27 26 24 22 22 22 21 20
47 47 46 43 39 37 35 34 35 35 34 35 35 34 31 24 14 8 10 19 27 30 29 27 25 20 17 18 16 14 14 12 10 13 18 20 18 17 17 19 20 20 21
43 43 42 39 36 34 34 33 33 32 32 32 33 33 29 23 13 6 9 19 27 27 25 22 21 18 14 14 16 19 20 17 12 9 9 10 10 9 11 15 19 19 18
36 35 34 33 32 31 31 31 31 30 29 28 28 28 26 21 13 5 7 19 25 23 21 19 16 12 7 7 13 18 19 17 14 10 8 8 9 9 10 14 18 19 18
30 28 28 28 29 29 29 30 30 29 28 26 24 24 22 18 12 5 5 13 19 20 19 18 12 5 1 2 6 11 11 11 12 13 12 14 15 15 14 16 19 19 19
29 27 26 27 27 28 29 28 27 27 26 24 23 21 19 15 11 5 2 5 10 14 17 14 8 2 0 0 2 3 3 4 8 11 12 14 17 17 17 19 20 20 20
29 28 27 26 27 28 28 26 24 22 21 19 18 16 15 14 11 5 1 1 3 8 10 7 3 1 0 0 0 0 0 1 3 6 7 9 13 15 16 18 20 20 19
28 26 25 24 25 25 24 22 20 18 18 16 15 13 13 13 11 6 2 2 2 3 4 3 1 1 1 1 1 1 1 2 2 3 4 6 9 12 14 16 18 18 17
25 24 22 21 21 19 17 15 14 13 14 14 13 13 12 12 9 5 3 3 3 2 3 3 3 3 4 4 3 3 3 4 3 3 4 5 7 10 12 14 15 16 15
24 22 19 17 15 13 12 10 8 7 7 8 8 9 9 7 5 3 2 2 2 3 3 3 3 3 4 4 5 5 5 6 6 6 5 6 7 9 10 12 13 14 15
22 20 16 12 11 10 10 9 7 5 4 3 3 3 4 3 1 0 1 1 1 2 3 3 3 3 3 3 4 4 5 5 5 6 6 6 7 7 8 8 9 11 13
19 17 13 9 8 9 10 10 9 8 7 5 2 0 1 1 0 0 0 1 1 2 3 3 3 3 3 3 3 3 3 2 3 3 3 4 5 6 5 5 5 7 8
15 13 9 7 7 9 9 9 9 8 8 6 3 0 0 0 0 0 1 2 3 3 3 2 2 2 2 2 1 1 1 0 1 1 1 1 2 4 4 4 4 4 5
10 7 5 5 6 7 7 7 6 6 6 4 2 0 0 0 0 0 1 2 2 2 1 1 1 1 1 1 0 0 0 0 0 0 0 0 1 2 3 4 5 6 7
4 3 3 3 4 5 5 5 5 5 4 2 1 0 0 0 0 0 0 1 1 1 0 0 0 0 0 0 0 0 0 0 0 0 0 0 0 0 1 2 4 6 8
2 2 2 2 3 4 5 5 5 4 3 1 0 0 0 0 0 0 0 0 0 0 0 0 0 0 0 0 0 0 0 0 0 0 1 0 0 0 0 1 3 4 6
2 2 2 2 2 3 4 4 4 3 2 0 0 0 0 0 0 0 0 0 0 0 0 0 0 0 0 0 0 0 0 0 0 0 0 0 0 0 1 1 2 2 2
2 2 2 2 1 1 1 2 3 3 2 1 0 0 0 0 0 0 0 0 0 0 0 0 0 0 0 0 0 0 0 0 0 0 0 0 0 1 2 3 2 2 1
1 1 1 1 0 0 0 1 2 3 3 2 1 0 0 0 0 0 0 0 0 0 0 0 0 0 0 0 0 0 0 0 0 0 0 1 1 2 3 3 3 2 2
0 0 0 0 0 0 0 0 1 3 3 3 2 1 0 0 0 0 0 0 0 0 0 0 0 0 0 0 0 0 0 0 0 0 1 2 2 3 3 3 3 3 2

GEFSGL_con_probscp_246.txt.gz
Probability
54 52 50 48 46 42 38 37 37 39 43 45 45 44 40 38 40 40 38 37 38 38 35 30 28 27 24 21 20 21 24 24 19 16 18 20 22 22 23 27 26 21 16
54 53 50 49 46 44 41 40 39 42 45 48 48 47 42 40 43 45 41 39 40 40 37 34 31 29 28 25 22 22 24 25 23 20 18 21 24 24 25 26 25 21 20
52 52 51 48 48 47 46 43 43 46 50 51 51 50 46 44 46 47 45 42 42 41 40 38 34 32 33 30 26 25 25 25 25 21 19 21 24 25 26 26 24 22 22
52 53 53 52 51 51 49 47 47 50 52 53 53 52 49 46 44 45 45 44 43 42 42 39 34 32 33 32 29 27 26 25 22 19 18 19 22 25 27 25 24 23 23
56 56 58 57 55 53 51 49 50 51 51 51 52 52 49 43 38 39 42 42 43 43 43 40 34 30 30 28 24 22 23 23 21 18 17 16 19 23 24 23 21 20 20
59 60 60 60 56 52 50 50 51 50 49 48 48 47 43 36 30 29 34 38 41 43 43 40 33 28 26 22 15 12 14 17 18 19 18 16 16 17 18 18 18 16 15
59 60 60 58 55 52 52 52 52 50 47 44 42 40 37 32 24 19 23 33 41 43 41 37 30 25 24 21 14 10 11 12 14 18 20 18 16 16 16 15 16 16 15
54 55 57 55 53 54 54 53 52 49 46 41 37 36 35 31 23 14 16 28 39 42 39 33 27 23 22 22 20 17 16 15 14 15 18 18 16 15 14 14 15 15 16
49 50 51 50 49 52 52 50 49 48 45 39 36 35 35 31 21 11 13 25 35 37 34 28 22 20 19 19 22 23 20 18 14 12 12 12 10 8 8 9 11 12 12
46 47 47 46 45 46 46 44 43 44 43 39 36 35 35 30 18 8 9 21 28 29 26 22 18 15 12 12 18 21 19 16 14 11 9 8 6 5 4 5 6 7 7
45 46 47 46 43 40 40 40 39 39 40 39 37 34 32 27 16 5 5 14 20 20 18 16 13 8 4 4 9 13 13 12 12 9 8 8 8 6 5 4 4 5 5
44 44 44 45 43 40 39 38 38 38 38 37 34 30 27 23 15 5 2 6 11 13 13 10 7 3 0 0 2 4 5 5 6 5 6 7 7 7 6 6 5 4 5
42 42 42 43 43 42 40 37 37 38 37 35 31 27 25 22 16 9 3 2 3 7 8 6 2 0 0 0 0 0 1 2 2 2 4 5 5 7 8 8 6 4 4
43 42 42 42 41 42 41 36 33 34 34 33 31 26 23 21 17 11 7 3 3 3 4 3 1 0 0 1 1 2 2 3 3 3 4 5 5 7 9 9 6 5 4
45 43 41 39 38 39 37 31 25 24 25 25 25 23 20 17 13 10 8 6 5 3 3 4 3 2 2 2 3 3 3 4 3 4 4 5 6 8 9 9 8 6 6
44 42 36 33 35 37 34 27 18 13 11 11 12 13 13 10 7 5 5 5 4 3 3 5 5 4 4 4 3 2 2 3 4 4 4 4 5 8 9 9 8 6 6
40 36 31 30 31 31 30 27 18 10 5 3 3 4 4 3 2 1 1 1 1 1 3 5 5 5 5 4 4 3 2 3 4 4 4 4 6 8 8 7 7 6 5
35 31 26 26 27 25 23 21 17 11 7 5 2 1 0 0 0 0 0 1 1 2 5 6 6 6 6 5 5 5 5 5 6 6 6 6 7 8 7 6 6 5 4
29 25 22 22 22 21 18 13 10 8 7 7 3 1 0 0 0 0 1 2 3 5 6 6 6 6 6 6 7 8 8 7 7 7 6 7 7 8 7 6 5 4 3
21 19 17 17 17 16 13 9 6 6 6 5 3 1 0 0 0 0 1 2 3 5 6 6 6 6 7 7 8 9 8 8 8 7 6 6 6 6 6 5 4 3 3
15 12 10 10 9 8 6 5 4 5 5 3 2 2 1 0 0 0 0 1 2 4 5 5 6 6 6 7 7 8 7 7 7 7 6 6 5 4 4 3 3 4 4
9 6 4 3 2 2 1 1 3 4 4 3 2 2 1 0 0 0 0 1 1 1 2 3 4 4 4 4 5 5 4 4 6 6 6 5 4 3 2 2 2 3 3
2 2 1 0 0 0 0 1 2 3 3 3 2 1 1 1 1 1 1 2 3 2 2 3 3 2 3 3 3 2 1 2 5 6 5 4 3 2 1 1 1 1 1
0 0 0 0 0 0 0 1 2 3 3 3 3 2 2 2 2 2 3 3 4 4 4 3 2 2 3 4 3 1 0 2 3 4 4 3 3 2 1 1 1 1 1
0 0 0 0 0 0 0 0 1 1 2 3 3 3 3 3 3 4 4 4 3 3 3 3 3 2 4 5 3 1 0 1 1 2 2 2 2 2 2 2 2 2 2
0 0 0 0 0 0 0 0 0 0 1 3 3 3 3 3 3 4 6 6 3 1 2 3 3 3 5 5 3 1 0 0 0 1 1 1 2 2 2 1 1 1 1